MENDUMS POND: From 04/19/2019 00:00 to 06/20/2019 00:00

Date LAKE ELEVATION [FT] PRECIPITATION INCREMENT [IN] WATER TEMPERATURE [F] PRECIPITATION TOTAL [IN] AIR TEMPERATURE [F] RESERVOIR RELEASE [CFS]
06/18/2019 13:00 -- -- -- -- -- 4.0
06/18/2019 12:00 224.61 0.00 53.1 -- 70.3 4.0
06/18/2019 11:00 224.61 0.00 53.3 -- 68.6 4.0
06/18/2019 10:00 224.61 0.00 53.2 -- 67.2 4.3
06/18/2019 09:00 224.61 0.00 53.0 -- 65.3 4.3
06/18/2019 08:00 224.61 0.00 53.3 -- 61.4 4.0
06/18/2019 07:00 224.61 0.00 53.2 -- 57.5 4.0
06/18/2019 06:00 224.61 0.00 53.1 -- 57.4 4.5
06/18/2019 05:00 224.61 0.00 52.9 -- 57.3 4.3
06/18/2019 04:00 224.61 0.00 53.2 -- 58.0 4.8
06/18/2019 03:00 224.61 0.00 53.0 -- 56.6 4.8
06/18/2019 02:00 224.61 0.00 52.9 -- 59.4 5.0
06/18/2019 01:00 224.62 0.00 53.2 -- 58.3 5.0
06/18/2019 00:00 224.62 0.00 53.3 -- 59.5 5.0
06/17/2019 23:00 224.62 0.00 53.6 -- 61.0 5.0
06/17/2019 22:00 224.61 0.00 53.0 -- 63.5 5.0
06/17/2019 21:00 224.62 0.00 53.8 -- 67.9 5.0
06/17/2019 20:00 224.62 0.00 53.5 -- 79.6 5.0
06/17/2019 19:00 224.62 0.00 53.6 -- 81.8 5.0
06/17/2019 18:00 224.62 0.00 53.3 -- 79.8 5.0
06/17/2019 17:00 224.62 0.00 54.5 -- 79.3 5.3
06/17/2019 16:00 224.62 0.00 53.2 -- 79.3 5.0
06/17/2019 15:00 224.63 0.00 53.4 -- 78.4 5.0
06/17/2019 14:00 224.63 0.00 54.4 -- 76.5 5.0
06/17/2019 13:00 224.63 0.00 53.8 -- 74.4 5.0
06/17/2019 12:00 224.62 0.00 53.1 -- 71.3 5.0
06/17/2019 11:00 224.63 0.00 53.4 -- 72.5 5.5
06/17/2019 10:00 224.63 0.00 53.5 -- 67.3 5.5
06/17/2019 09:00 224.63 0.00 52.9 -- 62.8 5.3
06/17/2019 08:00 224.63 0.00 53.4 -- 60.3 5.8
06/17/2019 07:00 224.63 0.00 53.7 -- 59.7 5.3
06/17/2019 06:00 224.63 0.00 53.4 -- 60.2 6.0
06/17/2019 05:00 224.63 0.00 53.6 -- 61.8 5.3
06/17/2019 04:00 224.63 0.00 53.2 -- 62.9 5.5
06/17/2019 03:00 224.63 0.00 53.2 -- 63.5 6.0
06/17/2019 02:00 224.63 0.01 53.5 -- 63.8 6.0
06/17/2019 01:00 224.63 0.00 53.3 -- 63.9 6.0
06/17/2019 00:00 224.63 0.00 53.4 0.01 64.1 6.0
06/16/2019 23:00 224.63 0.00 53.6 -- 64.1 6.0
06/16/2019 22:00 224.63 0.00 53.5 -- 64.4 6.0
06/16/2019 21:00 224.63 0.00 53.4 -- 65.2 5.8
06/16/2019 20:00 224.63 0.00 53.1 -- 65.5 6.0
06/16/2019 19:00 224.63 0.00 53.5 -- 67.0 6.0
06/16/2019 18:00 224.63 0.01 53.5 -- 66.2 6.0
06/16/2019 17:00 224.63 0.01 53.2 -- 66.4 6.0
06/16/2019 16:00 224.63 0.03 53.6 -- 66.4 6.0
06/16/2019 15:00 224.63 0.05 53.5 -- 66.8 5.5
06/16/2019 14:00 224.63 0.07 53.0 -- 66.3 5.0
06/16/2019 13:00 224.62 0.04 53.4 -- 66.5 5.0
06/16/2019 12:00 224.62 0.00 53.1 -- 67.8 5.0
06/16/2019 11:00 224.61 0.00 53.8 -- 67.7 5.0
06/16/2019 10:00 224.62 0.00 53.3 -- 66.3 5.0
06/16/2019 09:00 224.62 0.00 53.0 -- 64.0 5.0
06/16/2019 08:00 224.63 0.00 53.8 -- 63.0 5.0
06/16/2019 07:00 224.62 0.00 53.7 -- 61.5 5.0
06/16/2019 06:00 224.62 0.00 53.1 -- 61.7 5.0
06/16/2019 05:00 224.62 0.00 53.4 -- 62.1 5.0
06/16/2019 04:00 224.62 0.00 53.8 -- 62.9 5.0
06/16/2019 03:00 224.62 0.00 53.5 -- 63.5 5.0
06/16/2019 02:00 224.62 0.00 53.0 -- 65.5 5.0
06/16/2019 01:00 224.62 0.00 52.9 -- 64.8 5.0
06/16/2019 00:00 224.61 0.00 53.3 0.21 67.3 5.0
06/15/2019 23:00 224.63 0.00 52.6 -- 65.1 5.8
06/15/2019 22:00 224.62 0.00 53.1 -- 68.1 5.3
06/15/2019 21:00 224.63 0.00 53.4 -- 71.4 5.3
06/15/2019 20:00 224.61 0.00 53.4 -- 75.0 5.0
06/15/2019 19:00 224.63 0.00 52.6 -- 78.8 5.5
06/15/2019 18:00 224.61 0.00 53.1 -- 79.5 4.8
06/15/2019 17:00 224.63 0.00 53.5 -- 79.4 6.0
06/15/2019 16:00 224.63 0.00 52.9 -- 79.8 5.5
06/15/2019 15:00 224.64 0.00 52.8 -- 79.1 5.5
06/15/2019 14:00 224.62 0.00 53.4 -- 76.0 5.8
06/15/2019 13:00 224.62 0.00 53.3 -- 74.9 5.0
06/15/2019 12:00 224.63 0.00 53.3 -- 73.0 6.3
06/15/2019 11:00 224.64 0.00 53.3 -- 70.4 6.0
06/15/2019 10:00 224.64 0.00 53.2 -- 62.3 6.0
06/15/2019 09:00 224.63 0.00 53.3 -- 59.6 6.0
06/15/2019 08:00 224.64 0.00 53.5 -- 55.4 6.3
06/15/2019 07:00 224.64 0.00 52.7 -- 50.2 6.0
06/15/2019 06:00 224.64 0.00 52.8 -- 48.2 6.0
06/15/2019 05:00 224.64 0.00 53.8 -- 49.5 6.0
06/15/2019 04:00 224.63 0.00 53.2 -- 49.8 6.0
06/15/2019 03:00 224.64 0.00 53.4 -- 50.6 6.8
06/15/2019 02:00 224.64 0.00 52.8 -- 50.2 6.0
06/15/2019 01:00 224.63 0.00 53.5 -- 50.5 6.3
06/15/2019 00:00 224.65 0.00 52.8 0.00 52.5 6.8
06/14/2019 23:00 224.64 0.00 53.1 -- 56.5 6.3
06/14/2019 22:00 224.64 0.00 54.3 -- 58.6 6.8
06/14/2019 21:00 224.65 0.00 52.6 -- 61.5 7.0
06/14/2019 20:00 224.63 0.00 52.5 -- 63.8 6.3
06/14/2019 19:00 224.64 0.00 52.8 -- 67.3 6.5
06/14/2019 18:00 224.65 0.00 53.4 -- 68.6 7.0
06/14/2019 17:00 224.65 0.00 52.8 -- 67.8 7.3
06/14/2019 16:00 224.64 0.00 52.9 -- 70.1 6.8
06/14/2019 15:00 224.65 0.00 53.0 -- 68.7 7.0
06/14/2019 14:00 224.65 0.00 53.3 -- 67.8 6.5
06/14/2019 13:00 224.66 0.00 53.0 -- 68.6 6.8
06/14/2019 12:00 224.66 0.00 53.0 -- 64.3 7.0
06/14/2019 11:00 224.65 0.00 52.8 -- 61.8 7.0
06/14/2019 10:00 224.65 0.00 52.8 -- 58.8 7.0
06/14/2019 09:00 224.65 0.00 52.7 -- 54.9 7.0
06/14/2019 08:00 224.65 0.00 52.7 -- 52.6 7.0
06/14/2019 07:00 224.65 0.00 52.9 -- 50.8 7.0
06/14/2019 06:00 224.65 0.00 52.7 -- 50.4 7.0
06/14/2019 05:00 224.66 0.00 52.9 -- 50.0 7.3
06/14/2019 04:00 224.66 0.00 52.6 -- 49.8 7.8
06/14/2019 03:00 224.66 0.00 52.8 -- 49.4 7.8
06/14/2019 02:00 224.66 0.00 52.3 -- 49.1 7.0
06/14/2019 01:00 224.66 0.00 53.3 -- 48.7 8.0
06/14/2019 00:00 224.66 0.00 53.2 0.00 50.0 7.8
06/13/2019 23:00 224.65 0.00 52.8 -- 50.9 7.0
06/13/2019 22:00 224.66 0.00 53.2 -- 52.0 7.3
06/13/2019 21:00 224.66 0.00 53.4 -- 52.1 7.5
06/13/2019 20:00 224.65 0.00 53.4 -- 52.1 7.8
06/13/2019 19:00 224.68 0.01 53.3 -- 52.0 8.3
06/13/2019 18:00 224.66 0.03 53.6 -- 51.5 7.8
06/13/2019 17:00 224.67 0.08 53.2 -- 50.8 7.8
06/13/2019 16:00 224.66 0.06 53.2 -- 50.9 7.5
06/13/2019 15:00 224.66 0.12 53.6 -- 51.1 7.3
06/13/2019 14:00 224.65 0.01 53.5 -- 52.5 7.0
06/13/2019 13:00 224.64 0.00 53.3 -- 53.8 6.5
06/13/2019 12:00 224.64 0.01 53.1 -- 56.9 6.3
06/13/2019 11:00 224.64 0.03 53.5 -- 57.2 6.5
06/13/2019 10:00 224.64 0.01 53.1 -- 54.1 7.0
06/13/2019 09:00 224.64 0.00 53.6 -- 55.2 6.3
06/13/2019 08:00 224.64 0.00 52.9 -- 53.1 6.0
06/13/2019 07:00 224.64 0.00 53.3 -- 50.8 6.3
06/13/2019 06:00 224.64 0.00 54.3 -- 50.6 6.8
06/13/2019 05:00 224.64 0.00 53.7 -- 50.8 6.0
06/13/2019 04:00 224.64 0.00 53.2 -- 51.2 6.3
06/13/2019 03:00 224.64 0.00 52.9 -- 52.1 6.8
06/13/2019 02:00 224.64 0.00 54.2 -- 52.1 6.8
06/13/2019 01:00 224.64 0.00 53.5 -- 52.5 7.0
06/13/2019 00:00 224.65 0.00 53.4 0.36 54.5 7.0
06/12/2019 23:00 224.65 0.00 53.5 -- 55.7 7.0
06/12/2019 22:00 224.65 0.00 53.3 -- 58.8 7.0
06/12/2019 21:00 224.65 0.00 53.1 -- 64.8 7.0
06/12/2019 20:00 224.65 0.00 53.2 -- 71.6 7.0
06/12/2019 19:00 224.66 0.00 53.4 -- 75.4 7.3
06/12/2019 18:00 224.65 0.00 53.3 -- 77.3 7.3
06/12/2019 17:00 224.66 0.00 53.4 -- 77.4 7.5
06/12/2019 16:00 224.66 0.00 53.5 -- 76.4 7.3
06/12/2019 15:00 224.66 0.00 53.5 -- 74.7 7.8
06/12/2019 14:00 224.66 0.00 53.3 -- 73.3 7.5
06/12/2019 13:00 224.66 0.00 53.5 -- 72.7 7.5
06/12/2019 12:00 224.66 0.00 53.4 -- 68.5 7.8
06/12/2019 11:00 224.66 0.00 53.0 -- 67.6 8.0
06/12/2019 10:00 224.66 0.00 53.3 -- 64.9 7.7
06/12/2019 09:00 224.66 0.00 53.0 -- 57.2 8.0
06/12/2019 08:00 224.67 0.00 52.9 -- 56.3 8.0
06/12/2019 07:00 224.67 0.00 53.0 -- 53.1 8.0
06/12/2019 06:00 224.67 0.00 52.8 -- 51.9 8.0
06/12/2019 05:00 224.67 0.00 53.3 -- 51.2 8.0
06/12/2019 04:00 224.67 0.00 53.0 -- 50.4 8.5
06/12/2019 03:00 224.67 0.00 53.1 -- 52.1 8.3
06/12/2019 02:00 224.67 0.00 52.3 -- 53.8 8.3
06/12/2019 01:00 224.67 0.00 52.8 -- 58.0 8.8
06/12/2019 00:00 224.68 0.00 53.0 0.00 60.0 8.5
06/11/2019 23:00 224.67 0.00 54.2 -- 61.9 9.0
06/11/2019 22:00 224.68 0.00 53.3 -- 63.7 8.5
06/11/2019 21:00 224.68 0.00 53.1 -- 65.4 8.5
06/11/2019 20:00 224.69 0.00 53.4 -- 68.3 9.5
06/11/2019 19:00 224.69 0.00 52.6 -- 70.2 10.3
06/11/2019 18:00 224.68 0.00 53.5 -- 72.7 8.5
06/11/2019 17:00 224.72 0.01 52.9 -- 74.1 10.5
06/11/2019 16:00 224.68 0.00 53.0 -- 71.6 9.8
06/11/2019 15:00 224.69 0.00 52.9 -- 71.4 10.3
06/11/2019 14:00 224.68 0.00 52.9 -- 71.2 9.3
06/11/2019 13:00 224.69 0.00 53.2 -- 69.5 10.0
06/11/2019 12:00 224.69 0.04 52.8 -- 68.2 9.3
06/11/2019 11:00 224.69 0.01 53.0 -- 66.7 9.3
06/11/2019 10:00 224.69 0.05 53.0 -- 64.5 10.0
06/11/2019 09:00 224.68 0.04 52.9 -- 62.5 9.3
06/11/2019 08:00 224.69 0.07 52.9 -- 62.3 9.0
06/11/2019 07:00 224.68 0.03 53.1 -- 61.8 8.8
06/11/2019 06:00 224.67 0.02 53.0 -- 61.7 9.0
06/11/2019 05:00 224.69 0.07 52.8 -- 61.5 8.5
06/11/2019 04:00 224.67 0.18 53.0 -- 60.9 8.3
06/11/2019 03:00 224.66 0.06 52.9 -- 60.5 7.3
06/11/2019 02:00 224.65 0.00 52.9 -- 60.8 7.0
06/11/2019 01:00 224.65 0.00 52.9 -- 61.6 7.0
06/11/2019 00:00 224.65 0.00 53.0 0.58 63.3 7.0
06/10/2019 23:00 224.65 0.00 52.9 -- 64.3 7.0
06/10/2019 22:00 224.65 0.00 52.7 -- 64.3 7.0
06/10/2019 21:00 224.66 0.00 53.5 -- 67.7 7.3
06/10/2019 20:00 224.66 0.00 53.3 -- 71.0 7.3
06/10/2019 19:00 224.65 0.00 53.4 -- 73.5 7.5
06/10/2019 18:00 224.66 0.00 53.6 -- 74.3 7.5
06/10/2019 17:00 224.67 0.00 52.9 -- 78.0 7.8
06/10/2019 16:00 224.67 0.00 53.3 -- 81.2 8.0
06/10/2019 15:00 224.66 0.00 53.8 -- 78.3 8.0
06/10/2019 14:00 224.67 0.00 53.4 -- 80.2 8.3
06/10/2019 13:00 224.67 0.00 53.0 -- 76.2 8.3
06/10/2019 12:00 224.67 0.00 53.4 -- 74.6 8.3
06/10/2019 11:00 224.67 0.00 53.8 -- 71.6 8.8
06/10/2019 10:00 224.67 0.00 53.3 -- 67.5 9.0
06/10/2019 09:00 224.67 0.00 53.3 -- 62.6 8.5
06/10/2019 08:00 224.68 0.00 53.5 -- 56.0 9.0
06/10/2019 07:00 224.68 0.00 53.3 -- 52.3 9.0
06/10/2019 06:00 224.68 0.00 52.5 -- 52.1 9.0
06/10/2019 05:00 224.68 0.00 54.0 -- 52.5 9.0
06/10/2019 04:00 224.68 0.00 53.6 -- 53.9 9.0
06/10/2019 03:00 224.68 0.00 53.2 -- 55.3 9.0
06/10/2019 02:00 224.69 0.00 52.5 -- 57.0 9.8
06/10/2019 01:00 224.69 0.00 53.5 -- 59.2 10.0
06/10/2019 00:00 224.69 0.00 52.7 0.00 59.1 9.8
06/09/2019 23:00 224.69 0.00 53.2 -- 60.0 10.0
06/09/2019 22:00 224.69 0.00 53.2 -- 62.8 10.0
06/09/2019 21:00 224.69 0.00 53.5 -- 69.2 10.0
06/09/2019 20:00 224.70 0.00 52.9 -- 77.3 10.0
06/09/2019 19:00 224.70 0.00 53.0 -- 79.7 10.5
06/09/2019 18:00 224.70 0.00 53.4 -- 79.5 11.0
06/09/2019 17:00 224.70 0.00 53.0 -- 79.7 11.0
06/09/2019 16:00 224.71 0.00 53.0 -- 81.5 11.0
06/09/2019 15:00 224.70 0.00 53.2 -- 79.2 11.0
06/09/2019 14:00 224.71 0.00 53.2 -- 79.4 11.0
06/09/2019 13:00 224.71 0.00 52.9 -- 72.3 11.0
06/09/2019 12:00 224.71 0.00 53.0 -- 69.3 11.5
06/09/2019 11:00 224.71 0.00 53.4 -- 65.5 11.5
06/09/2019 10:00 224.71 0.00 53.1 -- 62.8 12.0
06/09/2019 09:00 224.72 0.00 52.7 -- 59.3 12.0
06/09/2019 08:00 224.72 0.00 53.3 -- 52.7 12.0
06/09/2019 07:00 224.71 0.00 52.8 -- 48.1 12.0
06/09/2019 06:00 224.72 0.00 53.1 -- 49.4 12.5
06/09/2019 05:00 224.73 0.00 53.4 -- 50.8 13.0
06/09/2019 04:00 224.73 0.00 53.0 -- 49.5 12.5
06/09/2019 03:00 224.73 0.00 52.9 -- 52.0 13.0
06/09/2019 02:00 224.73 0.00 53.2 -- 51.2 13.0
06/09/2019 01:00 224.73 0.00 53.2 -- 52.5 13.0
06/09/2019 00:00 224.73 0.00 53.1 0.00 54.4 13.3
06/08/2019 23:00 224.73 0.00 53.8 -- 57.8 13.8
06/08/2019 22:00 224.74 0.00 52.7 -- 62.3 14.0
06/08/2019 21:00 224.74 0.00 53.4 -- 67.9 14.0
06/08/2019 20:00 224.74 0.00 53.6 -- 74.7 14.0
06/08/2019 19:00 224.74 0.00 52.8 -- 77.0 14.3
06/08/2019 18:00 224.75 0.00 53.2 -- 78.4 15.0
06/08/2019 17:00 224.74 0.00 53.5 -- 80.0 14.5
06/08/2019 16:00 224.75 0.00 53.0 -- 76.5 15.3
06/08/2019 15:00 224.75 0.00 53.6 -- 79.0 15.5
06/08/2019 14:00 224.76 0.00 53.7 -- 74.8 15.8
06/08/2019 13:00 224.76 0.00 53.1 -- 74.8 16.0
06/08/2019 12:00 224.76 0.00 53.2 -- 72.3 16.0
06/08/2019 11:00 224.76 0.00 53.4 -- 70.7 16.0
06/08/2019 10:00 224.77 0.00 53.6 -- 68.3 16.8
06/08/2019 09:00 224.77 0.00 53.4 -- 63.6 16.8
06/08/2019 08:00 224.77 0.00 52.6 -- 55.3 16.8
06/08/2019 07:00 224.77 0.00 54.0 -- 50.2 17.0
06/08/2019 06:00 224.77 0.00 53.5 -- 50.3 17.0
06/08/2019 05:00 224.77 0.00 52.9 -- 52.3 17.3
06/08/2019 04:00 224.78 0.00 53.0 -- 54.7 17.5
06/08/2019 03:00 224.78 0.00 52.5 -- 55.7 18.0
06/08/2019 02:00 224.78 0.00 53.1 -- 56.9 18.0
06/08/2019 01:00 224.78 0.00 53.2 -- 58.9 17.8
06/08/2019 00:00 224.77 0.00 52.3 0.00 58.9 17.8
06/07/2019 23:00 224.79 0.00 53.1 -- 60.4 18.8
06/07/2019 22:00 224.79 0.00 53.4 -- 61.1 18.5
06/07/2019 21:00 224.79 0.00 52.8 -- 68.3 19.0
06/07/2019 20:00 224.79 0.00 53.5 -- 75.2 19.3
06/07/2019 19:00 224.79 0.00 52.6 -- 74.8 19.3
06/07/2019 18:00 224.81 0.00 52.5 -- 81.6 20.0
06/07/2019 17:00 224.80 0.00 52.4 -- 81.2 20.0
06/07/2019 16:00 224.80 0.00 53.0 -- 81.8 19.5
06/07/2019 15:00 224.81 0.00 53.2 -- 78.8 20.0
06/07/2019 14:00 224.80 0.00 52.3 -- 77.6 20.0
06/07/2019 13:00 224.81 0.00 53.0 -- 76.8 20.0
06/07/2019 12:00 224.81 0.00 53.1 -- 72.1 20.0
06/07/2019 11:00 224.81 0.00 53.2 -- 69.7 20.0
06/07/2019 10:00 224.81 0.00 53.2 -- 66.3 20.8
06/07/2019 09:00 224.80 0.00 52.3 -- 59.3 20.0
06/07/2019 08:00 224.81 0.00 52.5 -- 52.2 20.5
06/07/2019 07:00 224.81 0.00 53.8 -- 48.5 20.5
06/07/2019 06:00 224.81 0.00 53.4 -- 48.4 20.8
06/07/2019 05:00 224.81 0.00 53.1 -- 49.6 20.0
06/07/2019 04:00 224.81 0.00 52.5 -- 50.8 20.3
06/07/2019 03:00 224.81 0.00 52.7 -- 52.4 20.3
06/07/2019 02:00 224.80 0.00 53.0 -- 54.4 20.0
06/07/2019 01:00 224.80 0.00 52.8 -- 55.3 20.3
06/07/2019 00:00 224.81 0.00 52.9 0.00 57.3 20.0
06/06/2019 23:00 224.80 0.00 52.5 -- 59.3 19.8
06/06/2019 22:00 224.80 0.00 53.0 -- 61.5 20.0
06/06/2019 21:00 224.80 0.00 53.1 -- 65.5 19.5
06/06/2019 20:00 224.80 0.00 52.5 -- 70.3 19.0
06/06/2019 19:00 224.80 0.00 52.3 -- 72.2 19.0
06/06/2019 18:00 224.79 0.00 52.8 -- 72.1 18.5
06/06/2019 17:00 224.78 0.00 53.4 -- 74.4 18.0
06/06/2019 16:00 224.78 0.00 52.5 -- 75.0 17.5
06/06/2019 15:00 224.78 0.00 53.0 -- 71.2 17.0
06/06/2019 14:00 224.77 0.00 53.0 -- 76.5 16.8
06/06/2019 13:00 224.77 0.00 52.5 -- 73.0 16.0
06/06/2019 12:00 224.77 0.00 52.6 -- 68.7 15.3
06/06/2019 11:00 224.76 0.00 52.9 -- 65.8 15.3
06/06/2019 10:00 224.75 0.00 52.4 -- 62.4 14.8
06/06/2019 09:00 224.75 0.00 52.7 -- 59.2 14.0
06/06/2019 08:00 224.73 0.37 52.7 -- 57.9 11.5
06/06/2019 07:00 224.69 0.06 53.4 -- 57.5 10.3
06/06/2019 06:00 224.69 0.10 52.5 -- 57.1 8.8
06/06/2019 05:00 224.66 0.55 52.6 -- 56.9 7.5
06/06/2019 04:00 224.63 0.36 52.4 -- 56.8 4.5
06/06/2019 03:00 224.59 0.01 53.5 -- 57.0 3.5
06/06/2019 02:00 224.60 0.08 53.0 -- 57.4 4.0
06/06/2019 01:00 224.60 0.09 52.5 -- 57.3 3.5
06/06/2019 00:00 224.59 0.00 52.1 1.62 57.8 3.0
06/05/2019 23:00 224.59 0.00 52.7 -- 59.5 3.0
06/05/2019 22:00 224.59 0.00 52.3 -- 59.7 3.0
06/05/2019 21:00 224.58 0.00 52.6 -- 60.8 3.0
06/05/2019 20:00 224.59 0.00 52.8 -- 62.2 3.0
06/05/2019 19:00 224.59 0.00 53.0 -- 62.3 3.3
06/05/2019 18:00 224.59 0.00 52.5 -- 66.6 3.0
06/05/2019 17:00 224.59 0.00 53.2 -- 67.7 3.0
06/05/2019 16:00 224.59 0.00 52.0 -- 71.8 3.0
06/05/2019 15:00 224.59 0.00 52.7 -- 77.3 3.0
06/05/2019 14:00 224.59 0.00 53.1 -- 77.0 3.0
06/05/2019 13:00 224.60 0.00 52.4 -- 72.8 3.3
06/05/2019 12:00 224.59 0.00 53.0 -- 65.3 3.0
06/05/2019 11:00 224.59 0.00 52.9 -- 61.2 3.0
06/05/2019 10:00 224.59 0.00 52.3 -- 55.5 3.0
06/05/2019 09:00 224.59 0.00 52.8 -- 53.7 3.5
06/05/2019 08:00 224.59 0.00 52.6 -- 52.0 3.0
06/05/2019 07:00 224.59 0.00 52.8 -- 50.5 3.0
06/05/2019 06:00 224.59 0.00 52.4 -- 50.5 3.0
06/05/2019 05:00 224.59 0.02 52.4 -- 51.0 3.5
06/05/2019 04:00 224.60 0.00 52.6 -- 50.4 4.0
06/05/2019 03:00 224.59 0.01 53.2 -- 50.7 3.0
06/05/2019 02:00 224.59 0.00 52.7 -- 51.1 3.5
06/05/2019 01:00 224.60 0.00 52.6 -- 52.7 3.3
06/05/2019 00:00 224.59 0.00 52.3 0.03 55.5 3.0
06/04/2019 23:00 224.60 0.00 51.8 -- 57.4 3.3
06/04/2019 22:00 224.59 0.00 53.0 -- 59.4 3.3
06/04/2019 21:00 224.60 0.00 52.7 -- 60.1 3.5
06/04/2019 20:00 224.60 0.00 52.4 -- 62.8 4.0
06/04/2019 19:00 224.59 0.00 51.7 -- 64.2 3.0
06/04/2019 18:00 224.60 0.00 52.6 -- 65.0 4.0
06/04/2019 17:00 224.59 0.00 52.7 -- 66.2 3.8
06/04/2019 16:00 224.59 0.00 51.7 -- 65.9 3.8
06/04/2019 15:00 224.61 0.00 51.8 -- 63.8 3.8
06/04/2019 14:00 224.62 0.00 52.5 -- 63.1 4.3
06/04/2019 13:00 224.63 0.00 52.1 -- 63.2 4.5
06/04/2019 12:00 224.60 0.00 52.6 -- 60.8 4.3
06/04/2019 11:00 224.61 0.00 52.7 -- 60.1 4.0
06/04/2019 10:00 224.61 0.00 52.8 -- 58.0 4.0
06/04/2019 09:00 224.60 0.00 52.7 -- 53.4 4.0
06/04/2019 08:00 224.61 0.00 52.9 -- 46.6 4.0
06/04/2019 07:00 224.61 0.00 52.4 -- 43.5 4.0
06/04/2019 06:00 224.61 0.00 52.5 -- 43.8 4.0
06/04/2019 05:00 224.61 0.00 53.1 -- 44.5 4.0
06/04/2019 04:00 224.61 0.00 52.6 -- 44.8 4.5
06/04/2019 03:00 224.62 0.00 52.5 -- 47.2 4.3
06/04/2019 02:00 224.60 0.00 51.9 -- 49.5 4.0
06/04/2019 01:00 224.61 0.00 53.7 -- 51.3 4.8
06/04/2019 00:00 224.61 0.00 53.4 0.00 53.0 4.0
06/03/2019 23:00 224.61 0.00 52.7 -- 54.6 4.5
06/03/2019 22:00 224.62 0.00 51.0 -- 55.9 5.0
06/03/2019 21:00 224.61 0.00 51.9 -- 56.2 4.3
06/03/2019 20:00 224.61 0.00 52.6 -- 58.5 4.5
06/03/2019 19:00 224.62 0.00 51.4 -- 61.9 5.0
06/03/2019 18:00 224.61 0.00 52.5 -- 63.0 4.0
06/03/2019 17:00 224.59 0.00 52.8 -- 63.5 4.8
06/03/2019 16:00 224.65 0.00 51.1 -- 64.8 6.3
06/03/2019 15:00 224.64 0.01 52.7 -- 65.7 4.8
06/03/2019 14:00 224.63 0.00 51.9 -- 66.0 5.5
06/03/2019 13:00 224.61 0.00 52.7 -- 65.4 4.8
06/03/2019 12:00 224.64 0.00 52.7 -- 63.7 5.5
06/03/2019 11:00 224.63 0.00 52.1 -- 60.7 5.0
06/03/2019 10:00 224.63 0.00 52.6 -- 57.0 5.5
06/03/2019 09:00 224.62 0.00 52.5 -- 53.6 5.3
06/03/2019 08:00 224.63 0.00 52.3 -- 48.1 5.0
06/03/2019 07:00 224.63 0.00 52.1 -- 45.7 5.5
06/03/2019 06:00 224.63 0.00 52.4 -- 47.3 5.5
06/03/2019 05:00 224.62 0.00 53.1 -- 49.9 5.3
06/03/2019 04:00 224.63 0.00 52.3 -- 54.3 6.0
06/03/2019 03:00 224.64 0.00 52.3 -- 56.1 5.8
06/03/2019 02:00 224.62 0.00 52.3 -- 53.5 5.5
06/03/2019 01:00 224.64 0.03 52.8 -- 53.2 6.0
06/03/2019 00:00 224.63 0.02 52.5 0.04 53.0 5.3
06/02/2019 23:00 224.62 0.01 51.8 -- 53.2 5.5
06/02/2019 22:00 224.63 0.00 52.5 -- 53.1 6.3
06/02/2019 21:00 224.62 0.00 51.9 -- 54.9 5.0
06/02/2019 20:00 224.63 0.05 52.7 -- 56.9 6.0
06/02/2019 19:00 224.63 0.11 53.1 -- 59.0 5.3
06/02/2019 18:00 224.61 0.00 52.2 -- 64.2 5.0
06/02/2019 17:00 224.62 0.00 52.7 -- 66.0 5.0
06/02/2019 16:00 224.61 0.00 52.2 -- 62.9 4.8
06/02/2019 15:00 224.62 0.00 52.2 -- 60.5 5.0
06/02/2019 14:00 224.62 0.00 52.5 -- 58.1 5.0
06/02/2019 13:00 224.62 0.00 52.3 -- 56.1 5.0
06/02/2019 12:00 224.62 0.00 52.1 -- 55.3 5.0
06/02/2019 11:00 224.62 0.00 53.0 -- 53.7 5.0
06/02/2019 10:00 224.62 0.00 52.2 -- 52.7 5.0
06/02/2019 09:00 224.61 0.00 52.3 -- 52.6 4.8
06/02/2019 08:00 224.62 0.00 52.8 -- 52.0 5.0
06/02/2019 07:00 224.63 0.00 52.0 -- 51.6 5.0
06/02/2019 06:00 224.62 0.00 52.3 -- 51.6 5.0
06/02/2019 05:00 224.62 0.00 52.3 -- 51.6 5.0
06/02/2019 04:00 224.63 0.00 52.7 -- 51.4 5.0
06/02/2019 03:00 224.62 0.00 53.1 -- 51.4 5.0
06/02/2019 02:00 224.63 0.00 51.9 -- 52.0 5.3
06/02/2019 01:00 224.62 0.00 51.7 -- 52.3 5.0
06/02/2019 00:00 224.62 0.00 52.9 0.19 53.2 5.0
06/01/2019 23:00 224.63 0.00 51.7 -- 53.1 5.8
06/01/2019 22:00 224.63 0.00 51.8 -- 54.2 5.3
06/01/2019 21:00 224.62 0.00 53.3 -- 55.6 5.3
06/01/2019 20:00 224.62 0.00 51.7 -- 59.2 5.3
06/01/2019 19:00 224.63 0.00 52.1 -- 63.4 6.0
06/01/2019 18:00 224.63 0.00 52.5 -- 69.5 5.8
06/01/2019 17:00 224.63 0.00 51.8 -- 69.9 5.5
06/01/2019 16:00 224.63 0.00 51.7 -- 69.3 6.0
06/01/2019 15:00 224.63 0.00 52.0 -- 68.8 6.0
06/01/2019 14:00 224.63 0.00 52.3 -- 69.0 5.8
06/01/2019 13:00 224.63 0.00 52.1 -- 65.2 6.0
06/01/2019 12:00 224.63 0.00 52.0 -- 62.1 6.0
06/01/2019 11:00 224.63 0.00 52.0 -- 59.3 6.0
06/01/2019 10:00 224.63 0.00 52.1 -- 58.5 5.8
06/01/2019 09:00 224.63 0.00 52.0 -- 55.9 5.5
06/01/2019 08:00 224.63 0.00 52.1 -- 49.6 6.0
06/01/2019 07:00 224.63 0.00 51.8 -- 46.3 6.0
06/01/2019 06:00 224.63 0.00 52.1 -- 46.3 6.0
06/01/2019 05:00 224.64 0.00 52.1 -- 47.0 6.0
06/01/2019 04:00 224.64 0.00 51.9 -- 48.0 6.5
06/01/2019 03:00 224.64 0.00 52.1 -- 50.3 6.0
06/01/2019 02:00 224.64 0.00 52.0 -- 52.3 6.8
06/01/2019 01:00 224.64 0.00 52.0 -- 52.0 6.0
06/01/2019 00:00 224.64 0.00 51.0 0.00 51.0 6.0
05/31/2019 23:00 224.64 0.00 51.8 -- 52.1 6.0
05/31/2019 22:00 224.64 0.00 52.5 -- 54.9 6.3
05/31/2019 21:00 224.64 0.00 51.3 -- 59.5 6.3
05/31/2019 20:00 224.64 0.00 52.3 -- 63.9 6.5
05/31/2019 19:00 224.65 0.00 52.3 -- 73.8 6.8
05/31/2019 18:00 224.65 0.00 51.9 -- 74.2 6.5
05/31/2019 17:00 224.65 0.00 52.5 -- 73.4 7.0
05/31/2019 16:00 224.66 0.00 52.4 -- 71.4 7.5
05/31/2019 15:00 224.65 0.00 53.0 -- 70.6 6.5
05/31/2019 14:00 224.65 0.00 52.0 -- 70.7 7.3
05/31/2019 13:00 224.65 0.00 52.1 -- 69.6 7.0
05/31/2019 12:00 224.65 0.00 52.0 -- 68.7 7.0
05/31/2019 11:00 224.66 0.00 51.1 -- 66.7 7.3
05/31/2019 10:00 224.65 0.00 51.8 -- 65.8 6.8
05/31/2019 09:00 224.65 0.00 52.1 -- 63.4 7.0
05/31/2019 08:00 224.65 0.00 52.1 -- 58.3 7.0
05/31/2019 07:00 224.65 0.00 51.1 -- 57.1 7.0
05/31/2019 06:00 224.66 0.00 51.4 -- 55.3 7.0
05/31/2019 05:00 224.65 0.00 52.0 -- 55.8 7.0
05/31/2019 04:00 224.65 0.00 51.8 -- 55.6 7.8
05/31/2019 03:00 224.66 0.00 51.8 -- 55.8 7.5
05/31/2019 02:00 224.65 0.02 51.5 -- 55.2 6.8
05/31/2019 01:00 224.66 0.00 52.1 -- 55.0 8.0
05/31/2019 00:00 224.65 0.00 51.2 0.02 55.2 7.0
05/30/2019 23:00 224.65 0.00 51.6 -- 55.6 7.0
05/30/2019 22:00 224.66 0.00 51.6 -- 56.1 7.5
05/30/2019 21:00 224.64 0.00 52.0 -- 58.1 6.8
05/30/2019 20:00 224.65 0.00 51.1 -- 60.5 7.0
05/30/2019 19:00 224.66 0.00 52.0 -- 61.7 7.8
05/30/2019 18:00 224.66 0.00 51.7 -- 64.6 7.0
05/30/2019 17:00 224.66 0.00 51.7 -- 66.8 7.5
05/30/2019 16:00 224.66 0.00 51.4 -- 64.9 7.5
05/30/2019 15:00 224.66 0.00 51.6 -- 62.6 7.5
05/30/2019 14:00 224.66 0.00 51.6 -- 62.9 7.8
05/30/2019 13:00 224.66 0.00 51.4 -- 61.5 7.3
05/30/2019 12:00 224.66 0.00 50.9 -- 57.5 7.5
05/30/2019 11:00 224.66 0.00 51.6 -- 54.2 7.8
05/30/2019 10:00 224.66 0.00 52.0 -- 52.9 7.3
05/30/2019 09:00 224.66 0.00 51.3 -- 51.2 7.0
05/30/2019 08:00 224.66 0.00 51.8 -- 49.1 7.0
05/30/2019 07:00 224.66 0.00 51.4 -- 47.8 7.8
05/30/2019 06:00 224.66 0.00 51.9 -- 47.1 7.0
05/30/2019 05:00 224.65 0.00 51.5 -- 47.0 7.5
05/30/2019 04:00 224.66 0.00 51.6 -- 47.1 7.8
05/30/2019 03:00 224.66 0.00 51.5 -- 47.0 7.0
05/30/2019 02:00 224.66 0.00 51.8 -- 47.1 7.5
05/30/2019 01:00 224.65 0.00 51.4 -- 47.4 7.0
05/30/2019 00:00 224.66 0.00 51.2 0.00 47.9 7.0
05/29/2019 23:00 224.66 0.00 51.3 -- 48.5 8.0
05/29/2019 22:00 224.66 0.00 51.3 -- 49.2 7.5
05/29/2019 21:00 224.66 0.00 51.6 -- 50.6 7.3
05/29/2019 20:00 224.66 0.00 51.2 -- 51.7 7.5
05/29/2019 19:00 224.66 0.00 51.4 -- 52.3 7.3
05/29/2019 18:00 224.65 0.00 51.0 -- 52.8 7.0
05/29/2019 17:00 224.65 0.00 51.4 -- 53.6 7.0
05/29/2019 16:00 224.65 0.00 52.9 -- 53.4 7.0
05/29/2019 15:00 224.65 0.00 50.6 -- 53.9 7.0
05/29/2019 14:00 224.65 0.00 52.0 -- 53.0 7.0
05/29/2019 13:00 224.65 0.00 51.5 -- 51.5 7.0
05/29/2019 12:00 224.66 0.00 51.0 -- 51.5 7.0
05/29/2019 11:00 224.65 0.00 51.4 -- 49.8 7.0
05/29/2019 10:00 224.65 0.00 51.2 -- 47.8 7.0
05/29/2019 09:00 224.65 0.00 51.2 -- 46.4 7.3
05/29/2019 08:00 224.65 0.00 51.3 -- 45.5 7.3
05/29/2019 07:00 224.66 0.00 51.1 -- 45.2 7.5
05/29/2019 06:00 224.66 0.00 51.2 -- 45.5 7.3
05/29/2019 05:00 224.66 0.01 51.3 -- 45.4 7.5
05/29/2019 04:00 224.66 0.00 51.5 -- 45.9 7.5
05/29/2019 03:00 224.65 0.01 51.2 -- 45.0 7.5
05/29/2019 02:00 224.65 0.01 51.0 -- 44.8 7.5
05/29/2019 01:00 224.66 0.01 51.2 -- 44.7 7.3
05/29/2019 00:00 224.65 0.01 51.5 0.04 44.4 7.0
05/28/2019 23:00 224.66 0.03 51.3 -- 44.6 7.0
05/28/2019 22:00 224.65 0.04 51.0 -- 44.3 7.0
05/28/2019 21:00 224.65 0.04 50.8 -- 44.4 6.3
05/28/2019 20:00 224.63 0.11 51.6 -- 44.4 5.8
05/28/2019 19:00 224.64 0.07 51.4 -- 44.6 5.8
05/28/2019 18:00 224.63 0.10 51.1 -- 44.9 5.0
05/28/2019 17:00 224.61 0.15 50.9 -- 45.3 4.0
05/28/2019 16:00 224.60 0.10 50.7 -- 46.6 3.8
05/28/2019 15:00 224.60 0.07 51.5 -- 47.8 3.3
05/28/2019 14:00 224.59 0.03 51.0 -- 49.1 3.0
05/28/2019 13:00 224.59 0.00 50.7 -- 52.0 3.0
05/28/2019 12:00 224.59 0.00 51.4 -- 54.6 3.0
05/28/2019 11:00 224.60 0.00 50.4 -- 55.0 3.3
05/28/2019 10:00 224.59 0.00 51.3 -- 56.1 3.0
05/28/2019 09:00 224.59 0.00 51.5 -- 53.9 3.0
05/28/2019 08:00 224.59 0.00 50.6 -- 49.9 3.0
05/28/2019 07:00 224.59 0.00 50.9 -- 44.6 3.0
05/28/2019 06:00 224.59 0.00 50.7 -- 43.4 3.0
05/28/2019 05:00 224.59 0.00 51.1 -- 44.1 3.3
05/28/2019 04:00 224.59 0.00 51.0 -- 44.9 3.3
05/28/2019 03:00 224.59 0.00 51.0 -- 46.5 3.0
05/28/2019 02:00 224.59 0.00 50.9 -- 48.4 3.5
05/28/2019 01:00 224.59 0.00 50.0 -- 50.3 3.5
05/28/2019 00:00 224.59 0.00 52.1 0.75 53.7 3.5
05/27/2019 23:00 224.60 0.00 50.5 -- 59.2 3.5
05/27/2019 22:00 224.59 0.00 51.2 -- 61.9 3.5
05/27/2019 21:00 224.58 0.00 50.8 -- 64.9 3.0
05/27/2019 20:00 224.60 0.00 50.9 -- 68.2 4.0
05/27/2019 19:00 224.61 0.00 50.7 -- 73.6 3.8
05/27/2019 18:00 224.59 0.00 50.8 -- 73.3 3.8
05/27/2019 17:00 224.63 0.00 50.6 -- 73.7 4.3
05/27/2019 16:00 224.60 0.00 50.6 -- 75.0 4.0
05/27/2019 15:00 224.61 0.00 50.7 -- 77.1 3.5
05/27/2019 14:00 224.62 0.00 51.2 -- 76.0 4.8
05/27/2019 13:00 224.61 0.00 50.7 -- 74.5 4.0
05/27/2019 12:00 224.61 0.00 50.5 -- 72.1 4.3
05/27/2019 11:00 224.61 0.00 50.6 -- 69.7 4.3
05/27/2019 10:00 224.61 0.00 50.8 -- 67.5 4.0
05/27/2019 09:00 224.61 0.00 50.6 -- 64.3 4.0
05/27/2019 08:00 224.61 0.00 50.7 -- 56.4 4.3
05/27/2019 07:00 224.61 0.00 50.5 -- 53.0 4.5
05/27/2019 06:00 224.61 0.00 50.7 -- 53.1 4.0
05/27/2019 05:00 224.61 0.00 50.3 -- 54.8 4.3
05/27/2019 04:00 224.62 0.00 50.1 -- 55.7 5.0
05/27/2019 03:00 224.61 0.00 50.6 -- 58.0 4.8
05/27/2019 02:00 224.62 0.00 50.8 -- 62.3 5.0
05/27/2019 01:00 224.61 0.00 50.1 -- 59.2 4.8
05/27/2019 00:00 224.61 0.00 51.1 0.00 61.6 5.0
05/26/2019 23:00 224.62 0.00 51.0 -- 64.8 5.0
05/26/2019 22:00 224.61 0.00 50.8 -- 67.4 5.0
05/26/2019 21:00 224.61 0.00 51.0 -- 73.0 4.8
05/26/2019 20:00 224.62 0.00 50.2 -- 78.3 5.0
05/26/2019 19:00 224.62 0.00 50.2 -- 82.4 4.8
05/26/2019 18:00 224.61 0.00 49.6 -- 84.5 4.8
05/26/2019 17:00 224.62 0.00 50.8 -- 83.9 5.0
05/26/2019 16:00 224.63 0.00 50.8 -- 86.1 5.3
05/26/2019 15:00 224.59 0.00 50.6 -- 84.4 3.8
05/26/2019 14:00 224.62 0.00 49.5 -- 81.3 4.5
05/26/2019 13:00 224.63 0.00 50.5 -- 79.5 5.0
05/26/2019 12:00 224.62 0.00 51.3 -- 75.7 5.3
05/26/2019 11:00 224.63 0.00 50.7 -- 71.5 5.8
05/26/2019 10:00 224.63 0.00 49.8 -- 65.3 5.5
05/26/2019 09:00 224.62 0.00 49.8 -- 59.1 5.0
05/26/2019 08:00 224.63 0.00 51.0 -- 54.8 6.0
05/26/2019 07:00 224.63 0.00 50.3 -- 52.8 5.5
05/26/2019 06:00 224.61 0.00 50.4 -- 52.5 5.5
05/26/2019 05:00 224.63 0.01 51.0 -- 52.5 5.5
05/26/2019 04:00 224.63 0.00 50.7 -- 54.3 6.0
05/26/2019 03:00 224.63 0.00 49.9 -- 55.0 5.0
05/26/2019 02:00 224.63 0.00 50.6 -- 60.2 5.0
05/26/2019 01:00 224.63 0.00 50.0 -- 59.9 5.8
05/26/2019 00:00 224.63 0.00 50.1 0.01 55.4 5.3
05/25/2019 23:00 224.63 0.00 49.8 -- 56.8 5.8
05/25/2019 22:00 224.63 0.00 50.1 -- 59.5 5.8
05/25/2019 21:00 224.63 0.00 50.5 -- 60.7 5.5
05/25/2019 20:00 224.64 0.00 50.0 -- 62.9 6.0
05/25/2019 19:00 224.63 0.00 50.0 -- 65.8 6.0
05/25/2019 18:00 224.63 0.00 50.0 -- 69.8 6.0
05/25/2019 17:00 224.63 0.00 50.0 -- 70.2 6.0
05/25/2019 16:00 224.63 0.00 50.2 -- 71.3 6.0
05/25/2019 15:00 224.63 0.00 50.2 -- 72.5 6.0
05/25/2019 14:00 224.64 0.00 50.1 -- 71.9 6.0
05/25/2019 13:00 224.64 0.00 50.2 -- 70.9 6.0
05/25/2019 12:00 224.63 0.00 50.4 -- 68.6 6.0
05/25/2019 11:00 224.64 0.00 49.9 -- 66.5 6.0
05/25/2019 10:00 224.64 0.00 50.3 -- 65.0 6.0
05/25/2019 09:00 224.64 0.00 49.9 -- 56.7 6.0
05/25/2019 08:00 224.64 0.00 50.3 -- 48.3 6.0
05/25/2019 07:00 224.64 0.00 50.1 -- 44.0 6.0
05/25/2019 06:00 224.64 0.00 49.5 -- 44.9 6.0
05/25/2019 05:00 224.64 0.00 50.5 -- 45.1 6.3
05/25/2019 04:00 224.64 0.00 49.7 -- 44.2 6.0
05/25/2019 03:00 224.64 0.00 49.4 -- 44.3 6.3
05/25/2019 02:00 224.64 0.00 51.5 -- 45.7 6.0
05/25/2019 01:00 224.64 0.00 50.4 -- 46.5 6.0
05/25/2019 00:00 224.64 0.00 49.8 0.00 48.4 6.0
05/24/2019 23:00 224.64 0.00 50.4 -- 50.8 6.0
05/24/2019 22:00 224.64 0.00 50.4 -- 55.2 6.0
05/24/2019 21:00 224.63 0.00 51.1 -- 57.1 6.0
05/24/2019 20:00 224.64 0.00 51.0 -- 59.9 6.0
05/24/2019 19:00 224.64 0.00 51.0 -- 61.4 6.5
05/24/2019 18:00 224.63 0.00 51.1 -- 61.5 6.3
05/24/2019 17:00 224.63 0.00 51.2 -- 61.4 6.0
05/24/2019 16:00 224.63 0.00 51.3 -- 60.1 7.3
05/24/2019 15:00 224.63 0.00 50.7 -- 61.8 6.5
05/24/2019 14:00 224.64 0.00 50.7 -- 64.0 7.3
05/24/2019 13:00 224.65 0.00 50.2 -- 65.1 7.0
05/24/2019 12:00 224.64 0.00 50.7 -- 63.8 6.8
05/24/2019 11:00 224.64 0.00 51.5 -- 64.7 7.3
05/24/2019 10:00 224.61 0.00 50.9 -- 64.1 5.5
05/24/2019 09:00 224.65 0.00 50.7 -- 61.1 7.0
05/24/2019 08:00 224.64 0.00 51.7 -- 57.0 6.3
05/24/2019 07:00 224.64 0.01 50.7 -- 54.5 6.3
05/24/2019 06:00 224.64 0.00 50.5 -- 54.0 6.0
05/24/2019 05:00 224.64 0.00 50.3 -- 55.2 6.8
05/24/2019 04:00 224.64 0.00 50.8 -- 54.9 6.3
05/24/2019 03:00 224.65 0.00 51.1 -- 54.8 6.8
05/24/2019 02:00 224.64 0.00 50.6 -- 55.6 6.3
05/24/2019 01:00 224.64 0.37 51.1 -- 56.3 5.5
05/24/2019 00:00 224.61 0.02 51.0 0.38 57.9 4.5
05/23/2019 23:00 224.60 0.00 50.7 -- 58.5 4.3
05/23/2019 22:00 224.61 0.00 50.9 -- 60.1 4.5
05/23/2019 21:00 224.60 0.00 50.7 -- 61.9 4.0
05/23/2019 20:00 224.61 0.00 50.6 -- 63.1 4.0
05/23/2019 19:00 224.61 0.00 51.0 -- 62.7 4.5
05/23/2019 18:00 224.60 0.00 51.0 -- 67.0 4.3
05/23/2019 17:00 224.61 0.00 50.2 -- 68.8 4.0
05/23/2019 16:00 224.61 0.00 50.3 -- 70.6 4.5
05/23/2019 15:00 224.61 0.00 50.8 -- 70.9 4.5
05/23/2019 14:00 224.61 0.00 50.4 -- 69.4 4.5
05/23/2019 13:00 224.62 0.00 50.5 -- 68.0 4.3
05/23/2019 12:00 224.61 0.00 50.7 -- 63.5 4.0
05/23/2019 11:00 224.61 0.00 50.5 -- 61.7 4.0
05/23/2019 10:00 224.61 0.00 50.9 -- 57.6 4.3
05/23/2019 09:00 224.61 0.00 50.6 -- 54.2 4.5
05/23/2019 08:00 224.61 0.00 50.8 -- 51.9 4.3
05/23/2019 07:00 224.61 0.00 50.6 -- 50.0 4.0
05/23/2019 06:00 224.61 0.00 50.6 -- 49.6 4.8
05/23/2019 05:00 224.61 0.00 50.3 -- 49.4 4.8
05/23/2019 04:00 224.61 0.00 51.5 -- 48.8 4.8
05/23/2019 03:00 224.62 0.00 50.4 -- 48.1 5.0
05/23/2019 02:00 224.61 0.00 51.3 -- 47.6 4.8
05/23/2019 01:00 224.61 0.00 50.9 -- 45.9 5.0
05/23/2019 00:00 224.62 0.00 50.6 0.02 46.3 4.8
05/22/2019 23:00 224.61 0.00 50.2 -- 48.3 4.8
05/22/2019 22:00 224.62 0.00 50.5 -- 50.3 5.0
05/22/2019 21:00 224.61 0.00 51.2 -- 55.6 4.5
05/22/2019 20:00 224.62 0.00 51.4 -- 61.8 5.0
05/22/2019 19:00 224.62 0.00 50.9 -- 65.5 4.5
05/22/2019 18:00 224.61 0.00 50.4 -- 69.4 4.5
05/22/2019 17:00 224.63 0.00 50.6 -- 69.8 5.8
05/22/2019 16:00 224.62 0.00 50.4 -- 67.7 4.3
05/22/2019 15:00 224.63 0.00 50.6 -- 65.8 5.3
05/22/2019 14:00 224.63 0.00 50.3 -- 64.2 4.8
05/22/2019 13:00 224.62 0.00 50.6 -- 63.4 5.0
05/22/2019 12:00 224.63 0.00 50.6 -- 59.3 5.5
05/22/2019 11:00 224.63 0.00 50.9 -- 58.0 5.8
05/22/2019 10:00 224.62 0.00 51.0 -- 55.3 5.5
05/22/2019 09:00 224.63 0.00 50.6 -- 53.3 5.8
05/22/2019 08:00 224.63 0.00 50.2 -- 51.5 5.5
05/22/2019 07:00 224.63 0.00 51.3 -- 49.3 5.8
05/22/2019 06:00 224.62 0.00 50.7 -- 50.7 5.8
05/22/2019 05:00 224.64 0.00 51.1 -- 48.6 5.3
05/22/2019 04:00 224.63 0.00 51.0 -- 50.9 6.0
05/22/2019 03:00 224.63 0.00 50.5 -- 53.7 5.8
05/22/2019 02:00 224.63 0.00 51.4 -- 54.2 6.8
05/22/2019 01:00 224.64 0.00 50.2 -- 54.6 5.8
05/22/2019 00:00 224.66 0.00 51.0 0.00 54.9 6.3
05/21/2019 23:00 224.63 0.00 50.5 -- 55.3 5.8
05/21/2019 22:00 224.62 0.00 50.1 -- 55.8 5.3
05/21/2019 21:00 224.61 0.00 51.1 -- 57.2 6.3
05/21/2019 20:00 224.67 0.00 50.2 -- 59.1 6.8
05/21/2019 19:00 224.66 0.00 50.3 -- 59.3 6.5
05/21/2019 18:00 224.60 0.00 50.0 -- 58.8 5.3
05/21/2019 17:00 224.63 0.00 50.1 -- 60.4 8.8
05/21/2019 16:00 224.68 0.00 49.5 -- 60.6 6.8
05/21/2019 15:00 224.61 0.00 49.8 -- 62.5 5.8
05/21/2019 14:00 224.62 0.00 49.5 -- 62.8 5.5
05/21/2019 13:00 224.64 0.00 50.9 -- 61.1 6.0
05/21/2019 12:00 224.66 0.00 50.6 -- 59.9 8.5
05/21/2019 11:00 224.68 0.00 50.4 -- 57.2 7.5
05/21/2019 10:00 224.66 0.00 50.3 -- 56.7 7.5
05/21/2019 09:00 224.66 0.00 51.0 -- 56.3 7.8
05/21/2019 08:00 224.62 0.00 49.9 -- 55.7 7.0
05/21/2019 07:00 224.67 0.00 49.7 -- 54.7 8.0
05/21/2019 06:00 224.67 0.00 50.9 -- 55.4 8.0
05/21/2019 05:00 224.65 0.00 50.8 -- 56.7 7.8
05/21/2019 04:00 224.65 0.00 49.5 -- 59.2 8.3
05/21/2019 03:00 224.68 0.00 50.2 -- 61.8 8.3
05/21/2019 02:00 224.66 0.00 49.4 -- 64.4 8.0
05/21/2019 01:00 224.67 0.00 49.9 -- 64.6 8.0
05/21/2019 00:00 224.67 0.00 49.6 0.00 63.6 7.8
05/20/2019 23:00 224.66 0.07 49.8 -- 64.3 8.3
05/20/2019 22:00 224.68 0.00 49.0 -- 66.9 8.5
05/20/2019 21:00 224.67 0.00 50.5 -- 71.6 8.5
05/20/2019 20:00 224.67 0.00 49.8 -- 72.1 9.0
05/20/2019 19:00 224.68 0.00 49.0 -- 78.7 8.5
05/20/2019 18:00 224.69 0.00 51.0 -- 81.5 9.5
05/20/2019 17:00 224.69 0.00 49.7 -- 79.6 8.8
05/20/2019 16:00 224.69 0.00 49.8 -- 80.1 9.3
05/20/2019 15:00 224.66 0.00 50.7 -- 80.9 9.3
05/20/2019 14:00 224.67 0.00 50.3 -- 78.8 8.5
05/20/2019 13:00 224.66 0.00 50.6 -- 72.5 8.8
05/20/2019 12:00 224.68 0.00 49.6 -- 73.5 8.8
05/20/2019 11:00 224.67 0.01 48.8 -- 71.2 8.5
05/20/2019 10:00 224.68 0.00 50.3 -- 66.7 9.0
05/20/2019 09:00 224.67 0.00 50.4 -- 61.4 8.3
05/20/2019 08:00 224.67 0.00 50.0 -- 60.2 8.5
05/20/2019 07:00 224.69 0.00 49.3 -- 60.0 8.8
05/20/2019 06:00 224.66 0.00 49.4 -- 60.3 8.0
05/20/2019 05:00 224.68 0.00 49.3 -- 61.3 9.5
05/20/2019 04:00 224.66 0.00 49.3 -- 62.3 8.0
05/20/2019 03:00 224.66 0.00 49.5 -- 63.3 8.8
05/20/2019 02:00 224.69 0.00 49.6 -- 64.1 9.0
05/20/2019 01:00 224.68 0.00 49.3 -- 62.7 9.0
05/20/2019 00:00 224.69 0.00 49.7 0.08 63.4 9.3
05/19/2019 23:00 224.67 0.00 49.3 -- 65.1 9.0
05/19/2019 22:00 224.68 0.00 49.7 -- 65.5 9.3
05/19/2019 21:00 224.68 0.00 49.8 -- 66.8 9.0
05/19/2019 20:00 224.68 0.00 49.4 -- 71.7 9.5
05/19/2019 19:00 224.69 0.00 49.2 -- 74.6 9.0
05/19/2019 18:00 224.68 0.00 50.0 -- 73.2 9.3
05/19/2019 17:00 224.68 0.00 50.3 -- 70.4 9.3
05/19/2019 16:00 224.68 0.00 49.0 -- 68.8 9.0
05/19/2019 15:00 224.68 0.00 50.0 -- 65.3 9.8
05/19/2019 14:00 224.68 0.00 48.9 -- 61.4 9.0
05/19/2019 13:00 224.67 0.00 49.1 -- 61.4 9.0
05/19/2019 12:00 224.69 0.00 49.9 -- 59.2 9.8
05/19/2019 11:00 224.68 0.00 49.5 -- 56.6 9.0
05/19/2019 10:00 224.68 0.00 49.1 -- 56.1 9.5
05/19/2019 09:00 224.69 0.00 49.4 -- 55.4 9.8
05/19/2019 08:00 224.68 0.00 49.3 -- 50.9 9.3
05/19/2019 07:00 224.69 0.00 49.3 -- 49.5 10.0
05/19/2019 06:00 224.69 0.00 49.4 -- 49.2 10.0
05/19/2019 05:00 224.69 0.00 49.2 -- 48.2 10.0
05/19/2019 04:00 224.70 0.00 49.3 -- 47.7 10.0
05/19/2019 03:00 224.69 0.00 49.5 -- 48.6 10.0
05/19/2019 02:00 224.70 0.00 49.2 -- 48.1 10.5
05/19/2019 01:00 224.70 0.00 48.8 -- 48.9 10.0
05/19/2019 00:00 224.69 0.00 50.0 0.00 52.3 10.3
05/18/2019 23:00 224.70 0.00 49.0 -- 52.8 10.0
05/18/2019 22:00 224.70 0.00 50.0 -- 54.4 10.0
05/18/2019 21:00 224.69 0.00 49.0 -- 58.6 10.3
05/18/2019 20:00 224.70 0.00 49.3 -- 62.4 11.0
05/18/2019 19:00 224.70 0.00 48.9 -- 66.2 9.8
05/18/2019 18:00 224.69 0.00 48.8 -- 70.0 11.0
05/18/2019 17:00 224.72 0.00 48.8 -- 70.0 11.8
05/18/2019 16:00 224.69 0.00 48.7 -- 69.1 9.8
05/18/2019 15:00 224.69 0.00 49.2 -- 68.7 10.8
05/18/2019 14:00 224.71 0.00 49.0 -- 67.1 10.8
05/18/2019 13:00 224.69 0.00 49.0 -- 62.3 10.8
05/18/2019 12:00 224.69 0.00 48.8 -- 61.4 11.0
05/18/2019 11:00 224.73 0.00 48.8 -- 58.2 11.0
05/18/2019 10:00 224.72 0.00 49.0 -- 56.0 11.5
05/18/2019 09:00 224.71 0.00 49.0 -- 53.6 11.3
05/18/2019 08:00 224.71 0.00 48.8 -- 51.8 12.8
05/18/2019 07:00 224.71 0.00 49.0 -- 50.8 11.8
05/18/2019 06:00 224.72 0.00 48.8 -- 50.9 12.5
05/18/2019 05:00 224.73 0.00 49.0 -- 52.5 12.5
05/18/2019 04:00 224.72 0.00 48.9 -- 53.9 12.3
05/18/2019 03:00 224.72 0.00 49.0 -- 50.2 12.0
05/18/2019 02:00 224.72 0.00 49.1 -- 53.6 12.0
05/18/2019 01:00 224.71 0.00 49.1 -- 57.1 12.5
05/18/2019 00:00 224.72 0.00 49.0 0.00 60.5 12.8
05/17/2019 23:00 224.72 0.00 48.8 -- 54.0 12.5
05/17/2019 22:00 224.73 0.00 48.5 -- 56.1 12.3
05/17/2019 21:00 224.71 0.00 49.7 -- 58.6 12.3
05/17/2019 20:00 224.73 0.00 49.3 -- 65.1 13.0
05/17/2019 19:00 224.72 0.00 48.8 -- 65.1 12.0
05/17/2019 18:00 224.71 0.00 48.5 -- 66.6 12.5
05/17/2019 17:00 224.72 0.00 48.4 -- 62.2 12.0
05/17/2019 16:00 224.72 0.00 48.8 -- 61.3 12.8
05/17/2019 15:00 224.73 0.00 48.6 -- 61.1 12.8
05/17/2019 14:00 224.72 0.01 48.8 -- 55.9 12.0
05/17/2019 13:00 224.73 0.00 48.6 -- 52.8 12.8
05/17/2019 12:00 224.73 0.02 49.0 -- 48.8 12.5
05/17/2019 11:00 224.72 0.04 48.5 -- 48.1 12.3
05/17/2019 10:00 224.72 0.03 48.5 -- 47.3 12.8
05/17/2019 09:00 224.72 0.05 48.9 -- 46.8 12.8
05/17/2019 08:00 224.73 0.05 48.9 -- 45.7 12.0
05/17/2019 07:00 224.71 0.00 48.6 -- 44.5 11.5
05/17/2019 06:00 224.71 0.00 48.7 -- 43.2 11.3
05/17/2019 05:00 224.71 0.00 48.7 -- 41.8 12.0
05/17/2019 04:00 224.71 0.00 48.7 -- 42.3 11.8
05/17/2019 03:00 224.71 0.00 48.9 -- 43.1 12.0
05/17/2019 02:00 224.72 0.00 48.9 -- 44.7 12.0
05/17/2019 01:00 224.72 0.00 48.6 -- 45.0 12.0
05/17/2019 00:00 224.71 0.00 48.6 0.20 45.2 12.0
05/16/2019 23:00 224.72 0.00 48.8 -- 45.5 12.0
05/16/2019 22:00 224.72 0.00 48.7 -- 48.6 12.0
05/16/2019 21:00 224.72 0.00 48.7 -- 53.8 12.3
05/16/2019 20:00 224.73 0.00 49.0 -- 57.9 12.5
05/16/2019 19:00 224.72 0.00 48.4 -- 59.9 12.3
05/16/2019 18:00 224.72 0.00 48.7 -- 62.1 12.8
05/16/2019 17:00 224.72 0.00 48.2 -- 62.9 12.5
05/16/2019 16:00 224.73 0.00 48.8 -- 62.8 12.8
05/16/2019 15:00 224.72 0.00 48.8 -- 63.0 12.8
05/16/2019 14:00 224.73 0.00 48.8 -- 62.3 13.0
05/16/2019 13:00 224.72 0.00 48.5 -- 62.0 13.0
05/16/2019 12:00 224.73 0.00 48.7 -- 62.0 12.5
05/16/2019 11:00 224.72 0.00 48.7 -- 57.9 13.0
05/16/2019 10:00 224.73 0.00 48.6 -- 57.1 13.0
05/16/2019 09:00 224.73 0.00 48.8 -- 51.8 13.0
05/16/2019 08:00 224.73 0.00 48.7 -- 47.5 13.0
05/16/2019 07:00 224.73 0.00 48.7 -- 46.5 13.0
05/16/2019 06:00 224.73 0.00 48.5 -- 46.5 13.3
05/16/2019 05:00 224.73 0.00 48.6 -- 45.6 13.0
05/16/2019 04:00 224.74 0.00 48.9 -- 45.6 13.3
05/16/2019 03:00 224.73 0.00 49.0 -- 45.4 13.0
05/16/2019 02:00 224.73 0.00 48.8 -- 45.9 13.8
05/16/2019 01:00 224.73 0.00 48.6 -- 46.1 13.0
05/16/2019 00:00 224.73 0.00 48.5 0.00 46.2 13.0
05/15/2019 23:00 224.73 0.00 48.6 -- 46.4 14.0
05/15/2019 22:00 224.73 0.00 49.0 -- 47.1 13.0
05/15/2019 21:00 224.73 0.00 48.6 -- 48.7 13.0
05/15/2019 20:00 224.73 0.00 48.8 -- 54.8 13.0
05/15/2019 19:00 224.73 0.00 48.3 -- 55.6 13.0
05/15/2019 18:00 224.73 0.00 48.8 -- 54.8 13.0
05/15/2019 17:00 224.73 0.00 48.8 -- 54.6 13.3
05/15/2019 16:00 224.71 0.01 48.6 -- 54.1 12.0
05/15/2019 15:00 224.74 0.00 49.1 -- 52.1 12.3
05/15/2019 14:00 224.72 0.00 48.5 -- 52.3 13.5
05/15/2019 13:00 224.73 0.00 48.5 -- 51.6 13.5
05/15/2019 12:00 224.73 0.00 48.5 -- 51.0 12.8
05/15/2019 11:00 224.73 0.00 48.8 -- 49.9 13.3
05/15/2019 10:00 224.73 0.00 49.1 -- 48.0 13.3
05/15/2019 09:00 224.73 0.00 48.6 -- 46.1 13.8
05/15/2019 08:00 224.73 0.00 48.7 -- 42.1 13.3
05/15/2019 07:00 224.73 0.00 48.8 -- 40.9 13.0
05/15/2019 06:00 224.73 0.00 48.8 -- 41.1 13.3
05/15/2019 05:00 224.73 0.00 48.7 -- 40.9 13.3
05/15/2019 04:00 224.73 0.00 48.6 -- 41.0 13.5
05/15/2019 03:00 224.73 0.00 48.5 -- 41.3 13.0
05/15/2019 02:00 224.73 0.00 48.5 -- 41.2 13.5
05/15/2019 01:00 224.73 0.00 48.5 -- 40.7 13.0
05/15/2019 00:00 224.73 0.00 48.5 0.01 41.4 13.0
05/14/2019 23:00 224.73 0.00 48.6 -- 42.2 13.0
05/14/2019 22:00 224.73 0.00 48.5 -- 41.9 13.0
05/14/2019 21:00 224.73 0.00 48.6 -- 42.3 13.0
05/14/2019 20:00 224.73 0.00 48.6 -- 43.1 13.3
05/14/2019 19:00 224.73 0.00 48.6 -- 43.4 13.0
05/14/2019 18:00 224.72 0.00 48.6 -- 43.4 13.0
05/14/2019 17:00 224.73 0.00 48.3 -- 44.8 13.0
05/14/2019 16:00 224.73 0.01 48.5 -- 44.5 12.8
05/14/2019 15:00 224.73 0.01 48.5 -- 43.0 13.0
05/14/2019 14:00 224.72 0.00 48.7 -- 42.9 12.8
05/14/2019 13:00 224.73 0.00 48.5 -- 43.1 12.5
05/14/2019 12:00 224.73 0.00 48.6 -- 42.0 12.5
05/14/2019 11:00 224.72 0.00 48.5 -- 40.7 12.5
05/14/2019 10:00 224.72 0.00 48.5 -- 39.3 12.8
05/14/2019 09:00 224.72 0.02 48.5 -- 38.3 12.3
05/14/2019 08:00 224.72 0.02 48.6 -- 37.9 12.0
05/14/2019 07:00 224.72 0.02 48.5 -- 37.4 12.0
05/14/2019 06:00 224.72 0.01 48.6 -- 37.8 11.8
05/14/2019 05:00 224.72 0.02 48.5 -- 37.9 11.8
05/14/2019 04:00 224.71 0.01 48.5 -- 38.6 11.3
05/14/2019 03:00 224.72 0.03 48.4 -- 39.5 11.8
05/14/2019 02:00 224.71 0.07 48.2 -- 40.2 11.3
05/14/2019 01:00 224.69 0.09 48.3 -- 41.1 10.5
05/14/2019 00:00 224.70 0.08 48.9 0.31 41.2 10.0
05/13/2019 23:00 224.68 0.08 48.6 -- 41.7 9.0
05/13/2019 22:00 224.68 0.13 48.6 -- 41.6 9.3
05/13/2019 21:00 224.67 0.02 48.5 -- 42.2 8.0
05/13/2019 20:00 224.67 0.01 48.6 -- 43.0 8.0
05/13/2019 19:00 224.68 0.00 48.5 -- 45.3 8.3
05/13/2019 18:00 224.67 0.00 48.3 -- 46.9 8.0
05/13/2019 17:00 224.67 0.00 48.2 -- 48.8 9.0
05/13/2019 16:00 224.66 0.00 48.3 -- 50.5 8.3
05/13/2019 15:00 224.68 0.00 48.8 -- 52.4 8.3
05/13/2019 14:00 224.66 0.00 48.5 -- 53.5 8.8
05/13/2019 13:00 224.67 0.00 48.9 -- 53.1 8.5
05/13/2019 12:00 224.67 0.00 48.8 -- 53.8 8.5
05/13/2019 11:00 224.67 0.00 48.3 -- 53.6 8.8
05/13/2019 10:00 224.68 0.00 48.4 -- 52.1 9.0
05/13/2019 09:00 224.68 0.00 48.4 -- 48.9 9.0
05/13/2019 08:00 224.68 0.00 48.5 -- 43.2 8.5
05/13/2019 07:00 224.68 0.00 48.5 -- 40.6 9.0
05/13/2019 06:00 224.68 0.00 48.6 -- 41.8 9.0
05/13/2019 05:00 224.68 0.00 48.3 -- 42.2 9.0
05/13/2019 04:00 224.67 0.00 48.5 -- 42.2 9.0
05/13/2019 03:00 224.68 0.00 48.5 -- 42.7 9.0
05/13/2019 02:00 224.68 0.00 48.6 -- 44.1 9.0
05/13/2019 01:00 224.68 0.00 48.6 -- 43.8 9.0
05/13/2019 00:00 224.68 0.00 48.6 0.32 44.1 9.0
05/12/2019 23:00 224.68 0.00 48.5 -- 43.9 9.0
05/12/2019 22:00 224.68 0.00 48.4 -- 45.7 9.0
05/12/2019 21:00 224.68 0.00 48.6 -- 46.9 9.0
05/12/2019 20:00 224.68 0.00 48.6 -- 48.3 9.0
05/12/2019 19:00 224.68 0.00 48.6 -- 49.9 9.0
05/12/2019 18:00 224.68 0.00 48.4 -- 51.5 9.0
05/12/2019 17:00 224.68 0.00 48.4 -- 51.3 9.0
05/12/2019 16:00 224.69 0.00 48.5 -- 51.6 9.5
05/12/2019 15:00 224.69 0.00 48.5 -- 51.6 9.0
05/12/2019 14:00 224.69 0.00 48.6 -- 51.8 9.5
05/12/2019 13:00 224.68 0.00 48.7 -- 51.8 9.8
05/12/2019 12:00 224.69 0.00 48.1 -- 50.9 10.0
05/12/2019 11:00 224.68 0.00 48.7 -- 50.5 9.5
05/12/2019 10:00 224.69 0.00 48.6 -- 49.3 10.0
05/12/2019 09:00 224.69 0.00 48.4 -- 47.0 9.8
05/12/2019 08:00 224.69 0.00 48.8 -- 44.8 10.0
05/12/2019 07:00 224.69 0.00 48.6 -- 43.3 9.8
05/12/2019 06:00 224.69 0.00 48.2 -- 43.4 9.8
05/12/2019 05:00 224.69 0.00 48.1 -- 43.8 9.8
05/12/2019 04:00 224.69 0.00 49.0 -- 43.4 10.0
05/12/2019 03:00 224.69 0.00 48.7 -- 43.5 10.0
05/12/2019 02:00 224.69 0.00 48.2 -- 45.8 10.0
05/12/2019 01:00 224.69 0.00 47.6 -- 47.9 10.0
05/12/2019 00:00 224.69 0.00 48.5 0.00 49.8 10.3
05/11/2019 23:00 224.70 0.00 48.4 -- 50.7 10.3
05/11/2019 22:00 224.69 0.00 48.1 -- 52.8 9.8
05/11/2019 21:00 224.69 0.00 48.2 -- 55.0 10.0
05/11/2019 20:00 224.71 0.00 48.0 -- 58.7 10.8
05/11/2019 19:00 224.69 0.00 47.9 -- 61.4 10.5
05/11/2019 18:00 224.70 0.00 48.1 -- 62.9 10.5
05/11/2019 17:00 224.70 0.00 48.1 -- 62.1 10.3
05/11/2019 16:00 224.70 0.00 47.6 -- 61.2 11.8
05/11/2019 15:00 224.71 0.00 47.9 -- 61.2 10.8
05/11/2019 14:00 224.73 0.00 47.9 -- 59.0 11.0
05/11/2019 13:00 224.70 0.00 48.2 -- 58.5 12.0
05/11/2019 12:00 224.71 0.00 48.1 -- 56.7 11.3
05/11/2019 11:00 224.72 0.00 47.9 -- 55.9 11.5
05/11/2019 10:00 224.69 0.00 48.1 -- 55.3 11.3
05/11/2019 09:00 224.70 0.00 48.1 -- 53.0 11.0
05/11/2019 08:00 224.71 0.00 48.1 -- 50.4 10.5
05/11/2019 07:00 224.71 0.00 48.0 -- 49.3 11.5
05/11/2019 06:00 224.70 0.00 47.8 -- 48.7 11.0
05/11/2019 05:00 224.71 0.00 47.8 -- 51.5 11.5
05/11/2019 04:00 224.71 0.00 48.6 -- 52.0 11.5
05/11/2019 03:00 224.71 0.00 48.1 -- 54.6 11.5
05/11/2019 02:00 224.70 0.00 48.0 -- 52.7 11.0
05/11/2019 01:00 224.71 0.00 48.0 -- 51.8 11.8
05/11/2019 00:00 224.71 0.00 48.1 0.00 51.7 11.0
05/10/2019 23:00 224.71 0.00 47.9 -- 51.6 11.5
05/10/2019 22:00 224.71 0.00 48.1 -- 51.5 12.0
05/10/2019 21:00 224.71 0.00 48.1 -- 51.8 11.0
05/10/2019 20:00 224.71 0.00 48.2 -- 52.0 11.5
05/10/2019 19:00 224.71 0.01 48.2 -- 51.9 11.8
05/10/2019 18:00 224.71 0.02 48.0 -- 52.0 11.3
05/10/2019 17:00 224.71 0.00 48.3 -- 51.5 11.3
05/10/2019 16:00 224.71 -- 48.0 -- 51.5 11.3
05/10/2019 15:00 224.69 -- 47.6 -- 51.6 10.0
05/10/2019 14:00 224.70 0.00 48.5 -- 51.5 11.0
05/10/2019 13:00 224.70 0.02 48.3 -- 50.5 11.0
05/10/2019 12:00 224.70 0.00 48.6 -- 51.5 10.3
05/10/2019 11:00 224.70 0.00 48.0 -- 50.4 10.0
05/10/2019 10:00 224.70 0.00 47.6 -- 47.5 10.3
05/10/2019 09:00 224.70 0.00 47.8 -- 45.5 10.8
05/10/2019 08:00 224.69 0.00 47.6 -- 44.2 10.3
05/10/2019 07:00 224.70 0.00 47.9 -- 43.4 10.8
05/10/2019 06:00 224.70 0.00 47.7 -- 43.6 10.3
05/10/2019 05:00 224.70 0.01 48.1 -- 44.0 10.3
05/10/2019 04:00 224.70 0.00 47.4 -- 45.3 10.5
05/10/2019 03:00 224.70 0.00 48.1 -- 47.6 10.5
05/10/2019 02:00 224.70 0.00 47.5 -- 47.8 10.8
05/10/2019 01:00 224.70 0.00 48.1 -- 48.3 10.5
05/10/2019 00:00 224.70 0.00 47.8 -- 48.5 10.8
05/09/2019 23:00 224.70 0.00 47.8 -- 48.7 11.0
05/09/2019 22:00 224.70 0.00 47.5 -- 49.0 11.0
05/09/2019 21:00 224.71 0.00 47.9 -- 49.9 11.0
05/09/2019 20:00 224.71 0.00 47.6 -- 52.1 11.0
05/09/2019 19:00 224.71 0.00 47.8 -- 54.5 11.5
05/09/2019 18:00 224.71 0.00 47.7 -- 56.5 10.8
05/09/2019 17:00 224.70 0.00 47.6 -- 57.6 11.8
05/09/2019 16:00 224.71 0.00 48.2 -- 60.2 11.5
05/09/2019 15:00 224.70 0.00 48.0 -- 58.8 11.3
05/09/2019 14:00 224.71 0.00 48.0 -- 58.1 11.8
05/09/2019 13:00 224.71 0.00 47.8 -- 58.0 11.0
05/09/2019 12:00 224.71 0.00 48.0 -- 53.5 12.0
05/09/2019 11:00 224.71 0.00 48.3 -- 51.5 11.5
05/09/2019 10:00 224.71 0.00 47.8 -- 48.5 12.0
05/09/2019 09:00 224.72 0.00 48.1 -- 44.8 12.0
05/09/2019 08:00 224.71 0.00 48.0 -- 35.6 12.0
05/09/2019 07:00 224.72 0.00 47.7 -- 32.1 12.0
05/09/2019 06:00 224.72 0.00 48.4 -- 32.5 12.0
05/09/2019 05:00 224.72 0.00 48.2 -- 33.6 12.0
05/09/2019 04:00 224.72 0.00 47.3 -- 34.3 12.0
05/09/2019 03:00 224.72 0.00 47.9 -- 36.5 12.3
05/09/2019 02:00 224.72 0.00 48.6 -- 38.3 12.0
05/09/2019 01:00 224.72 0.00 48.6 -- 40.9 12.0
05/09/2019 00:00 224.72 0.00 48.6 0.00 42.9 12.8
05/08/2019 23:00 224.72 0.00 47.4 -- 46.4 12.8
05/08/2019 22:00 224.72 0.00 47.2 -- 49.6 12.8
05/08/2019 21:00 224.73 0.00 47.4 -- 54.9 13.0
05/08/2019 20:00 224.73 0.00 47.3 -- 59.0 13.3
05/08/2019 19:00 224.74 0.00 47.0 -- 61.1 12.8
05/08/2019 18:00 224.73 0.00 47.6 -- 62.4 12.8
05/08/2019 17:00 224.73 0.00 47.2 -- 63.0 14.5
05/08/2019 16:00 224.70 0.00 47.0 -- 62.4 13.8
05/08/2019 15:00 224.74 0.00 47.2 -- 60.9 13.8
05/08/2019 14:00 224.73 0.00 47.0 -- 60.3 13.5
05/08/2019 13:00 224.75 0.00 47.3 -- 59.0 15.5
05/08/2019 12:00 224.76 0.00 47.3 -- 57.4 14.3
05/08/2019 11:00 224.75 0.00 47.1 -- 56.0 15.0
05/08/2019 10:00 224.75 0.00 47.4 -- 53.2 14.5
05/08/2019 09:00 224.74 0.00 47.2 -- 50.7 14.0
05/08/2019 08:00 224.75 0.00 47.0 -- 44.1 14.8
05/08/2019 07:00 224.74 0.00 47.1 -- 40.9 14.5
05/08/2019 06:00 224.75 0.00 47.1 -- 41.3 15.0
05/08/2019 05:00 224.75 0.00 47.1 -- 42.2 15.0
05/08/2019 04:00 224.75 0.00 47.2 -- 43.0 15.0
05/08/2019 03:00 224.75 0.00 46.9 -- 44.6 15.0
05/08/2019 02:00 224.75 0.00 47.1 -- 47.1 15.0
05/08/2019 01:00 224.75 0.00 47.4 -- 49.0 15.0
05/08/2019 00:00 224.75 0.00 47.5 0.00 52.8 15.3
05/07/2019 23:00 224.76 0.00 47.4 -- 53.2 15.0
05/07/2019 22:00 224.76 0.01 48.1 -- 55.0 15.3
05/07/2019 21:00 224.76 0.00 47.4 -- 55.3 15.5
05/07/2019 20:00 224.75 0.02 48.5 -- 56.5 15.5
05/07/2019 19:00 224.75 0.03 47.8 -- 57.4 15.3
05/07/2019 18:00 224.74 0.00 48.3 -- 61.4 15.3
05/07/2019 17:00 224.76 0.00 47.6 -- 67.6 16.0
05/07/2019 16:00 224.77 0.00 47.4 -- 69.1 15.8
05/07/2019 15:00 224.75 0.00 47.3 -- 66.5 15.3
05/07/2019 14:00 224.76 0.00 47.6 -- 63.0 15.8
05/07/2019 13:00 224.76 0.00 47.4 -- 63.6 15.8
05/07/2019 12:00 224.75 0.00 47.4 -- 61.9 16.0
05/07/2019 11:00 224.76 0.00 47.5 -- 58.7 16.0
05/07/2019 10:00 224.76 0.00 47.4 -- 57.1 15.8
05/07/2019 09:00 224.76 0.00 47.4 -- 49.6 15.8
05/07/2019 08:00 224.77 0.00 47.4 -- 43.5 16.0
05/07/2019 07:00 224.77 0.00 47.6 -- 39.2 16.3
05/07/2019 06:00 224.76 0.00 47.3 -- 40.2 16.3
05/07/2019 05:00 224.78 0.00 47.4 -- 39.6 16.8
05/07/2019 04:00 224.77 0.00 48.0 -- 38.7 16.0
05/07/2019 03:00 224.77 0.00 47.2 -- 38.2 16.8
05/07/2019 02:00 224.77 0.00 47.7 -- 39.1 17.0
05/07/2019 01:00 224.78 0.00 47.8 -- 40.5 17.0
05/07/2019 00:00 224.78 0.00 47.2 0.06 42.1 17.0
05/06/2019 23:00 224.78 0.00 47.2 -- 43.6 17.5
05/06/2019 22:00 224.78 0.00 47.7 -- 46.7 17.3
05/06/2019 21:00 224.78 0.00 47.2 -- 51.8 17.8
05/06/2019 20:00 224.78 0.00 47.2 -- 57.7 18.0
05/06/2019 19:00 224.79 0.00 47.4 -- 62.3 18.0
05/06/2019 18:00 224.78 0.00 47.8 -- 65.2 17.5
05/06/2019 17:00 224.79 0.00 47.9 -- 62.6 18.3
05/06/2019 16:00 224.79 0.00 47.5 -- 64.4 19.3
05/06/2019 15:00 224.78 0.00 47.6 -- 63.1 18.3
05/06/2019 14:00 224.79 0.00 47.9 -- 63.1 19.0
05/06/2019 13:00 224.79 0.00 47.9 -- 59.9 18.3
05/06/2019 12:00 224.79 0.00 48.2 -- 57.2 18.8
05/06/2019 11:00 224.80 0.00 48.1 -- 54.8 19.5
05/06/2019 10:00 224.80 0.00 47.9 -- 52.5 18.8
05/06/2019 09:00 224.79 0.00 47.9 -- 49.4 19.8
05/06/2019 08:00 224.81 0.00 47.8 -- 45.4 19.5
05/06/2019 07:00 224.80 0.00 48.0 -- 41.4 19.5
05/06/2019 06:00 224.80 0.00 47.8 -- 42.9 19.5
05/06/2019 05:00 224.80 0.00 48.3 -- 45.0 20.0
05/06/2019 04:00 224.81 0.00 47.9 -- 47.0 20.0
05/06/2019 03:00 224.80 0.00 48.0 -- 46.8 20.0
05/06/2019 02:00 224.81 0.00 47.8 -- 46.9 20.3
05/06/2019 01:00 224.81 0.00 48.0 -- 47.2 20.8
05/06/2019 00:00 224.81 0.00 47.9 0.00 47.4 20.3
05/05/2019 23:00 224.81 0.00 48.0 -- 48.5 20.3
05/05/2019 22:00 224.81 0.00 48.1 -- 49.8 21.0
05/05/2019 21:00 224.81 0.00 47.9 -- 51.3 20.5
05/05/2019 20:00 224.81 0.00 47.7 -- 53.5 21.3
05/05/2019 19:00 224.81 0.00 48.1 -- 55.6 21.0
05/05/2019 18:00 224.82 0.00 47.9 -- 57.0 21.3
05/05/2019 17:00 224.82 0.00 48.3 -- 57.4 21.3
05/05/2019 16:00 224.82 0.00 47.9 -- 57.6 21.3
05/05/2019 15:00 224.82 0.00 47.9 -- 57.5 22.0
05/05/2019 14:00 224.82 0.00 47.4 -- 57.7 21.5
05/05/2019 13:00 224.82 0.00 47.7 -- 57.2 22.0
05/05/2019 12:00 224.82 0.00 47.7 -- 56.6 22.0
05/05/2019 11:00 224.83 0.00 47.9 -- 54.1 22.0
05/05/2019 10:00 224.82 0.00 47.7 -- 51.5 22.0
05/05/2019 09:00 224.83 0.00 47.9 -- 50.5 22.5
05/05/2019 08:00 224.83 0.00 47.8 -- 49.4 22.0
05/05/2019 07:00 224.83 0.00 47.9 -- 48.5 22.8
05/05/2019 06:00 224.83 0.00 47.6 -- 49.2 22.8
05/05/2019 05:00 224.83 0.00 47.8 -- 49.4 22.3
05/05/2019 04:00 224.83 0.00 47.7 -- 49.4 23.3
05/05/2019 03:00 224.84 0.00 47.7 -- 50.0 23.5
05/05/2019 02:00 224.83 0.00 47.6 -- 50.0 22.5
05/05/2019 01:00 224.83 0.00 47.9 -- 49.8 23.5
05/05/2019 00:00 224.85 0.00 47.9 0.00 49.7 23.5
05/04/2019 23:00 224.83 0.00 47.8 -- 50.0 23.3
05/04/2019 22:00 224.84 0.00 47.8 -- 50.3 24.3
05/04/2019 21:00 224.84 0.00 47.9 -- 52.3 24.0
05/04/2019 20:00 224.84 0.00 48.0 -- 57.4 23.8
05/04/2019 19:00 224.84 0.00 48.0 -- 60.1 24.0
05/04/2019 18:00 224.84 0.00 47.8 -- 61.3 24.0
05/04/2019 17:00 224.84 0.00 47.3 -- 61.7 24.0
05/04/2019 16:00 224.85 0.00 47.7 -- 63.5 24.0
05/04/2019 15:00 224.84 0.00 47.4 -- 62.3 24.3
05/04/2019 14:00 224.85 0.00 48.1 -- 58.9 24.5
05/04/2019 13:00 224.85 0.00 47.8 -- 57.5 24.3
05/04/2019 12:00 224.85 0.00 47.8 -- 53.6 24.8
05/04/2019 11:00 224.85 0.01 47.6 -- 52.7 24.8
05/04/2019 10:00 224.85 0.00 47.8 -- 48.0 24.5
05/04/2019 09:00 224.86 0.00 47.7 -- 46.1 25.0
05/04/2019 08:00 224.85 0.00 47.7 -- 45.4 24.8
05/04/2019 07:00 224.84 0.00 47.7 -- 44.7 24.5
05/04/2019 06:00 224.86 0.03 47.9 -- 44.6 25.8
05/04/2019 05:00 224.85 0.00 47.8 -- 44.6 24.8
05/04/2019 04:00 224.85 0.00 47.7 -- 44.7 25.3
05/04/2019 03:00 224.86 0.00 47.8 -- 44.8 26.0
05/04/2019 02:00 224.86 0.00 47.5 -- 44.9 25.0
05/04/2019 01:00 224.85 0.01 47.7 -- 45.0 24.5
05/04/2019 00:00 224.86 0.07 47.8 0.05 45.0 25.8
05/03/2019 23:00 224.85 0.01 47.5 -- 45.1 24.8
05/03/2019 22:00 224.85 0.00 47.8 -- 45.2 25.0
05/03/2019 21:00 224.85 0.01 47.7 -- 45.6 24.3
05/03/2019 20:00 224.86 0.00 47.7 -- 45.8 25.0
05/03/2019 19:00 224.85 0.00 47.7 -- 45.8 24.5
05/03/2019 18:00 224.85 0.00 47.5 -- 46.4 24.8
05/03/2019 17:00 224.85 0.00 48.0 -- 46.3 25.5
05/03/2019 16:00 224.85 0.05 47.9 -- 45.9 24.8
05/03/2019 15:00 224.85 0.07 47.8 -- 45.5 24.0
05/03/2019 14:00 224.84 0.00 47.7 -- 46.6 23.5
05/03/2019 13:00 224.83 0.00 47.7 -- 46.6 23.3
05/03/2019 12:00 224.85 0.00 47.7 -- 45.6 24.3
05/03/2019 11:00 224.84 0.00 47.5 -- 44.5 23.0
05/03/2019 10:00 224.84 0.00 47.7 -- 43.7 24.0
05/03/2019 09:00 224.85 0.00 47.6 -- 42.7 24.0
05/03/2019 08:00 224.84 0.00 47.9 -- 42.0 24.0
05/03/2019 07:00 224.85 0.00 48.0 -- 41.4 24.0
05/03/2019 06:00 224.84 0.00 47.8 -- 41.3 24.0
05/03/2019 05:00 224.84 0.00 47.9 -- 41.3 24.0
05/03/2019 04:00 224.85 0.00 47.8 -- 41.3 24.8
05/03/2019 03:00 224.85 0.00 47.5 -- 41.4 24.8
05/03/2019 02:00 224.85 0.00 47.5 -- 41.4 24.8
05/03/2019 01:00 224.85 0.00 47.6 -- 41.7 25.0
05/03/2019 00:00 224.85 0.00 47.5 0.21 41.8 25.0
05/02/2019 23:00 224.85 0.00 47.6 -- 42.0 24.5
05/02/2019 22:00 224.85 0.00 47.5 -- 42.4 25.0
05/02/2019 21:00 224.85 0.00 47.6 -- 42.6 25.3
05/02/2019 20:00 224.86 0.00 47.6 -- 43.0 25.0
05/02/2019 19:00 224.86 0.01 47.7 -- 43.3 25.0
05/02/2019 18:00 224.86 0.00 47.6 -- 43.0 25.8
05/02/2019 17:00 224.86 0.00 47.8 -- 43.1 25.3
05/02/2019 16:00 224.86 0.00 47.7 -- 43.0 25.5
05/02/2019 15:00 224.86 0.00 47.6 -- 43.4 25.5
05/02/2019 14:00 224.86 0.00 47.4 -- 43.9 25.5
05/02/2019 13:00 224.86 0.00 47.5 -- 43.6 26.0
05/02/2019 12:00 224.86 0.00 47.6 -- 43.4 25.5
05/02/2019 11:00 224.87 0.01 47.4 -- 43.3 26.5
05/02/2019 10:00 224.87 0.00 47.6 -- 43.4 26.3
05/02/2019 09:00 224.86 0.00 47.7 -- 43.9 25.5
05/02/2019 08:00 224.86 0.01 47.5 -- 43.3 26.3
05/02/2019 07:00 224.87 0.00 47.5 -- 43.1 27.0
05/02/2019 06:00 224.87 0.03 47.9 -- 43.4 26.0
05/02/2019 05:00 224.86 0.02 47.5 -- 44.2 26.0
05/02/2019 04:00 224.86 0.08 47.7 -- 44.2 26.3
05/02/2019 03:00 224.86 0.12 47.6 -- 43.9 25.8
05/02/2019 02:00 224.86 0.07 47.5 -- 43.5 24.5
05/02/2019 01:00 224.84 0.00 47.5 -- 46.5 24.8
05/02/2019 00:00 224.84 0.00 47.5 0.35 46.5 24.3
05/01/2019 23:00 224.85 0.00 47.4 -- 46.9 24.3
05/01/2019 22:00 224.85 0.00 47.6 -- 47.5 24.5
05/01/2019 21:00 224.85 0.00 47.8 -- 48.1 25.0
05/01/2019 20:00 224.85 0.00 47.7 -- 50.2 25.0
05/01/2019 19:00 224.86 0.00 47.3 -- 52.6 25.0
05/01/2019 18:00 224.85 0.00 47.9 -- 53.0 25.5
05/01/2019 17:00 224.85 0.00 47.7 -- 52.1 25.8
05/01/2019 16:00 224.86 0.00 47.5 -- 52.4 25.8
05/01/2019 15:00 224.86 0.00 47.5 -- 53.1 26.0
05/01/2019 14:00 224.86 0.00 47.5 -- 52.9 26.5
05/01/2019 13:00 224.86 0.00 47.2 -- 53.4 26.3
05/01/2019 12:00 224.87 0.00 47.3 -- 52.1 27.0
05/01/2019 11:00 224.87 0.00 47.7 -- 50.3 27.0
05/01/2019 10:00 224.87 0.00 47.5 -- 48.5 27.0
05/01/2019 09:00 224.87 0.00 47.6 -- 45.6 27.8
05/01/2019 08:00 224.88 0.00 47.5 -- 40.4 28.0
05/01/2019 07:00 224.87 0.00 47.5 -- 38.8 27.3
05/01/2019 06:00 224.88 0.00 47.5 -- 39.3 28.3
05/01/2019 05:00 224.89 0.00 47.3 -- 39.8 29.0
05/01/2019 04:00 224.88 0.00 47.2 -- 38.5 28.5
05/01/2019 03:00 224.89 0.00 47.7 -- 38.1 29.0
05/01/2019 02:00 224.89 0.00 47.4 -- 36.4 29.8
05/01/2019 01:00 224.90 0.00 48.1 -- 37.4 29.3
05/01/2019 00:00 224.89 0.00 47.4 0.00 38.7 29.5
04/30/2019 23:00 224.90 0.00 47.3 -- 40.8 30.3
04/30/2019 22:00 224.90 0.00 47.3 -- 41.1 30.3
04/30/2019 21:00 224.89 0.00 47.4 -- 44.2 30.3
04/30/2019 20:00 224.90 0.00 47.5 -- 48.9 31.5
04/30/2019 19:00 224.92 0.00 47.6 -- 49.9 31.0
04/30/2019 18:00 224.91 0.00 47.6 -- 49.5 31.0
04/30/2019 17:00 224.91 0.00 47.4 -- 48.3 32.0
04/30/2019 16:00 224.92 0.00 47.3 -- 46.7 32.0
04/30/2019 15:00 224.91 0.00 47.5 -- 48.1 32.5
04/30/2019 14:00 224.93 0.00 47.4 -- 45.4 33.3
04/30/2019 13:00 224.92 0.00 47.4 -- 43.8 32.8
04/30/2019 12:00 224.93 0.01 47.5 -- 43.8 33.3
04/30/2019 11:00 224.93 0.01 47.5 -- 41.4 33.5
04/30/2019 10:00 224.93 0.00 47.5 -- 40.7 33.8
04/30/2019 09:00 224.93 0.00 47.4 -- 40.4 34.0
04/30/2019 08:00 224.94 0.01 47.4 -- 39.9 35.0
04/30/2019 07:00 224.94 0.02 47.6 -- 40.0 34.3
04/30/2019 06:00 224.93 0.00 47.5 -- 40.7 34.8
04/30/2019 05:00 224.95 0.01 47.4 -- 41.1 35.8
04/30/2019 04:00 224.95 0.01 47.5 -- 41.6 35.3
04/30/2019 03:00 224.94 0.03 47.7 -- 41.4 34.8
04/30/2019 02:00 224.95 0.00 47.5 -- 42.8 36.5
04/30/2019 01:00 224.96 0.00 47.3 -- 45.4 36.3
04/30/2019 00:00 224.95 0.00 47.4 0.10 46.0 36.0
04/29/2019 23:00 224.95 0.00 47.6 -- 45.1 37.0
04/29/2019 22:00 224.96 0.00 47.5 -- 46.3 37.3
04/29/2019 21:00 224.96 0.00 47.2 -- 49.0 37.5
04/29/2019 20:00 224.96 0.00 47.6 -- 52.6 37.8
04/29/2019 19:00 224.98 0.00 47.4 -- 54.0 39.5
04/29/2019 18:00 224.99 0.00 47.4 -- 54.7 39.8
04/29/2019 17:00 224.98 0.00 47.5 -- 54.9 40.3
04/29/2019 16:00 224.99 0.00 47.3 -- 54.9 38.8
04/29/2019 15:00 224.99 0.00 47.5 -- 55.0 40.3
04/29/2019 14:00 225.01 0.00 47.3 -- 53.3 40.3
04/29/2019 13:00 225.00 0.00 47.6 -- 49.9 40.8
04/29/2019 12:00 225.00 0.00 47.5 -- 48.6 40.0
04/29/2019 11:00 225.00 0.00 47.6 -- 45.9 43.0
04/29/2019 10:00 225.02 0.00 47.7 -- 44.9 44.3
04/29/2019 09:00 225.01 0.00 47.4 -- 41.9 43.0
04/29/2019 08:00 225.01 0.00 47.6 -- 37.2 43.3
04/29/2019 07:00 225.02 0.00 47.3 -- 32.5 44.8
04/29/2019 06:00 225.02 0.00 47.3 -- 34.2 44.8
04/29/2019 05:00 225.01 0.00 47.6 -- 34.8 44.3
04/29/2019 04:00 225.03 0.00 47.3 -- 34.8 46.5
04/29/2019 03:00 225.04 0.00 47.5 -- 33.8 47.8
04/29/2019 02:00 225.03 0.00 47.3 -- 36.8 46.8
04/29/2019 01:00 225.03 0.00 47.6 -- 43.9 47.5
04/29/2019 00:00 225.04 0.00 47.8 0.00 44.5 47.5
04/28/2019 23:00 225.05 0.00 47.5 -- 45.8 48.5
04/28/2019 22:00 225.05 0.00 46.9 -- 43.0 49.0
04/28/2019 21:00 225.05 0.00 47.6 -- 46.9 49.3
04/28/2019 20:00 225.05 0.00 47.4 -- 48.1 49.0
04/28/2019 19:00 225.05 0.00 48.1 -- 51.5 49.5
04/28/2019 18:00 225.07 0.00 46.9 -- 53.6 50.8
04/28/2019 17:00 225.06 0.00 46.6 -- 55.0 50.8
04/28/2019 16:00 225.06 0.00 46.7 -- 54.4 49.8
04/28/2019 15:00 225.06 0.00 46.9 -- 54.5 51.0
04/28/2019 14:00 225.07 0.00 47.0 -- 53.9 52.0
04/28/2019 13:00 225.07 0.00 46.6 -- 54.0 52.5
04/28/2019 12:00 225.09 0.00 46.9 -- 50.9 53.0
04/28/2019 11:00 225.09 0.00 47.2 -- 49.0 53.0
04/28/2019 10:00 225.09 0.00 46.7 -- 46.6 53.5
04/28/2019 09:00 225.08 0.00 46.6 -- 43.3 52.8
04/28/2019 08:00 225.09 0.00 46.8 -- 34.9 53.3
04/28/2019 07:00 225.09 0.00 47.1 -- 32.8 53.8
04/28/2019 06:00 225.09 0.00 46.9 -- 35.7 54.3
04/28/2019 05:00 225.09 0.00 46.9 -- 36.4 53.5
04/28/2019 04:00 225.10 0.00 46.5 -- 38.8 55.0
04/28/2019 03:00 225.09 0.00 46.7 -- 40.3 54.8
04/28/2019 02:00 225.08 0.00 46.6 -- 40.9 54.0
04/28/2019 01:00 225.08 0.00 46.6 -- 42.3 53.3
04/28/2019 00:00 225.11 0.00 46.7 0.00 42.6 55.8
04/27/2019 23:00 225.09 0.00 46.8 -- 42.0 54.0
04/27/2019 22:00 225.09 0.00 46.8 -- 41.9 54.3
04/27/2019 21:00 225.09 0.00 46.8 -- 43.8 53.5
04/27/2019 20:00 225.09 0.00 46.5 -- 45.8 53.0
04/27/2019 19:00 225.07 0.00 46.6 -- 46.6 52.5
04/27/2019 18:00 225.09 0.00 46.7 -- 48.0 52.5
04/27/2019 17:00 225.09 0.00 46.7 -- 48.5 51.0
04/27/2019 16:00 225.05 0.00 46.9 -- 47.9 50.5
04/27/2019 15:00 225.05 0.00 46.7 -- 48.2 49.3
04/27/2019 14:00 225.03 0.00 46.6 -- 46.2 47.3
04/27/2019 13:00 225.04 0.00 46.9 -- 46.5 47.5
04/27/2019 12:00 225.00 0.00 46.8 -- 46.2 44.3
04/27/2019 11:00 225.01 0.00 46.8 -- 47.0 42.3
04/27/2019 10:00 224.99 0.00 47.2 -- 45.2 40.0
04/27/2019 09:00 224.98 0.00 47.1 -- 44.3 38.0
04/27/2019 08:00 224.94 0.01 47.0 -- 42.9 34.8
04/27/2019 07:00 224.93 0.03 46.9 -- 43.1 32.5
04/27/2019 06:00 224.89 0.01 46.9 -- 43.6 30.8
04/27/2019 05:00 224.88 0.29 46.9 -- 43.1 26.5
04/27/2019 04:00 224.86 0.08 47.0 -- 42.7 24.5
04/27/2019 03:00 224.80 0.26 47.1 -- 42.5 20.3
04/27/2019 02:00 224.80 0.00 46.9 -- 41.5 18.5
04/27/2019 01:00 224.79 0.00 47.0 -- 41.0 18.0
04/27/2019 00:00 224.77 0.02 47.0 0.68 40.6 17.8
04/26/2019 23:00 224.73 0.17 46.9 -- 40.7 14.5
04/26/2019 22:00 224.77 0.21 47.0 -- 40.7 15.5
04/26/2019 21:00 224.74 0.00 46.8 -- 40.4 12.8
04/26/2019 20:00 224.71 0.01 47.0 -- 40.7 11.3
04/26/2019 19:00 224.74 0.40 47.1 -- 41.6 14.8
04/26/2019 18:00 224.67 0.08 46.7 -- 41.5 8.3
04/26/2019 17:00 224.68 0.01 46.5 -- 42.2 8.3
04/26/2019 16:00 224.66 0.00 47.3 -- 43.4 7.5
04/26/2019 15:00 224.66 0.00 47.2 -- 44.1 7.5
04/26/2019 14:00 224.66 0.01 47.0 -- 43.6 7.8
04/26/2019 13:00 224.66 0.03 46.9 -- 44.0 7.3
04/26/2019 12:00 224.65 0.07 46.8 -- 44.8 6.5
04/26/2019 11:00 224.64 0.00 46.7 -- 45.3 6.0
04/26/2019 10:00 224.64 0.02 46.8 -- 45.2 6.0
04/26/2019 09:00 224.63 0.00 46.9 -- 44.7 5.5
04/26/2019 08:00 224.63 0.00 46.7 -- 43.9 5.0
04/26/2019 07:00 224.62 0.00 47.5 -- 43.1 5.0
04/26/2019 06:00 224.62 0.00 47.2 -- 43.3 4.5
04/26/2019 05:00 224.61 0.00 46.7 -- 43.0 4.8
04/26/2019 04:00 224.62 0.00 47.9 -- 41.9 4.3
04/26/2019 03:00 224.60 0.00 46.6 -- 41.9 4.0
04/26/2019 02:00 224.61 0.00 47.6 -- 43.1 4.0
04/26/2019 01:00 224.60 0.00 47.3 -- 42.2 3.3
04/26/2019 00:00 224.60 0.00 47.6 1.03 41.8 4.0
04/25/2019 23:00 224.59 0.00 46.8 -- 42.2 3.3
04/25/2019 22:00 224.58 0.00 47.3 -- 44.8 3.0
04/25/2019 21:00 224.59 0.00 47.3 -- 48.3 3.0
04/25/2019 20:00 224.58 0.00 47.0 -- 51.5 3.0
04/25/2019 19:00 224.57 0.00 46.6 -- 54.1 2.0
04/25/2019 18:00 224.57 0.00 46.8 -- 55.1 2.0
04/25/2019 17:00 224.56 0.00 47.0 -- 56.2 2.0
04/25/2019 16:00 224.56 0.00 47.1 -- 57.2 2.0
04/25/2019 15:00 224.55 0.00 47.3 -- 58.2 1.0
04/25/2019 14:00 224.55 0.00 46.9 -- 56.4 1.3
04/25/2019 13:00 224.55 0.00 47.1 -- 54.3 1.0
04/25/2019 12:00 224.54 0.00 46.6 -- 56.0 1.0
04/25/2019 11:00 224.54 0.00 47.3 -- 50.6 1.0
04/25/2019 10:00 224.53 0.00 46.5 -- 48.4 1.0
04/25/2019 09:00 224.53 0.00 47.4 -- 37.7 1.0
04/25/2019 08:00 224.52 0.00 47.3 -- 36.7 0.0
04/25/2019 07:00 224.52 0.00 47.3 -- 35.6 0.0
04/25/2019 06:00 224.50 0.00 47.1 -- 39.4 0.0
04/25/2019 05:00 224.51 0.00 46.9 -- 39.5 0.0
04/25/2019 04:00 224.50 0.00 47.0 -- 39.5 0.0
04/25/2019 03:00 224.49 0.00 47.0 -- 41.1 0.0
04/25/2019 02:00 224.49 0.00 47.6 -- 43.1 0.0
04/25/2019 01:00 224.48 0.00 47.3 -- 42.8 0.0
04/25/2019 00:00 224.48 0.00 47.4 0.00 46.5 0.0
04/24/2019 23:00 224.46 0.00 46.8 -- 48.8 0.0
04/24/2019 22:00 224.47 0.00 46.0 -- 49.4 0.0
04/24/2019 21:00 224.46 0.00 47.2 -- 51.6 0.0
04/24/2019 20:00 224.45 0.00 47.2 -- 53.3 0.0
04/24/2019 19:00 224.44 0.00 47.0 -- 57.7 0.0
04/24/2019 18:00 224.44 0.00 46.4 -- 59.0 0.0
04/24/2019 17:00 224.43 0.00 46.1 -- 58.9 0.0
04/24/2019 16:00 224.43 0.00 46.3 -- 59.6 0.0
04/24/2019 15:00 224.40 0.00 46.5 -- 61.7 0.0
04/24/2019 14:00 224.41 0.00 46.4 -- 59.2 0.0
04/24/2019 13:00 224.40 0.00 46.9 -- 55.2 0.0
04/24/2019 12:00 224.39 0.00 46.2 -- 52.0 0.0
04/24/2019 11:00 224.39 0.00 46.2 -- 45.8 0.0
04/24/2019 10:00 224.37 0.00 46.7 -- 44.0 0.0
04/24/2019 09:00 224.37 0.00 46.5 -- 43.3 0.0
04/24/2019 08:00 224.36 0.00 46.6 -- 42.8 0.0
04/24/2019 07:00 224.35 0.01 46.5 -- 42.2 0.0
04/24/2019 06:00 224.35 0.00 46.4 -- 42.1 0.0
04/24/2019 05:00 224.33 0.00 46.7 -- 41.9 0.0
04/24/2019 04:00 224.33 0.00 46.7 -- 42.1 0.0
04/24/2019 03:00 224.32 0.09 46.6 -- 41.8 0.0
04/24/2019 02:00 224.30 0.07 46.9 -- 42.0 0.0
04/24/2019 01:00 224.29 0.05 46.7 -- 42.6 0.0
04/24/2019 00:00 224.27 0.00 46.5 0.22 43.2 0.0
04/23/2019 23:00 224.28 0.00 46.4 -- 44.2 0.0
04/23/2019 22:00 224.27 0.00 46.5 -- 45.3 0.0
04/23/2019 21:00 224.28 0.00 46.9 -- 46.3 0.0
04/23/2019 20:00 224.26 0.00 47.1 -- 49.6 0.0
04/23/2019 19:00 224.24 0.00 47.0 -- 53.7 0.0
04/23/2019 18:00 224.23 0.00 46.4 -- 55.6 0.0
04/23/2019 17:00 224.23 0.00 46.1 -- 55.9 0.0
04/23/2019 16:00 224.22 0.00 45.8 -- 55.3 0.0
04/23/2019 15:00 224.21 0.00 46.4 -- 52.8 0.0
04/23/2019 14:00 224.21 0.00 46.0 -- 52.0 0.0
04/23/2019 13:00 224.20 0.00 46.2 -- 51.1 0.0
04/23/2019 12:00 224.19 0.00 46.2 -- 49.7 3.8
04/23/2019 11:00 224.19 0.00 46.2 -- 48.9 5.0
04/23/2019 10:00 224.18 0.00 46.1 -- 48.5 5.0
04/23/2019 09:00 224.16 0.00 46.3 -- 49.0 5.0
04/23/2019 08:00 224.18 0.00 46.1 -- 49.3 5.0
04/23/2019 07:00 224.15 0.00 46.3 -- 49.9 5.0
04/23/2019 06:00 224.15 0.00 46.1 -- 50.1 5.0
04/23/2019 05:00 224.13 0.00 46.2 -- 50.5 5.0
04/23/2019 04:00 224.15 0.00 45.8 -- 51.0 5.0
04/23/2019 03:00 224.15 0.02 46.0 -- 52.0 5.0
04/23/2019 02:00 224.11 0.02 45.9 -- 52.2 4.3
04/23/2019 01:00 224.11 0.04 46.0 -- 54.1 4.5
04/23/2019 00:00 224.11 0.18 46.2 0.08 54.4 4.5
04/22/2019 23:00 224.08 0.08 46.2 -- 54.9 4.0
04/22/2019 22:00 224.09 0.21 46.4 -- 55.3 4.0
04/22/2019 21:00 224.05 0.05 46.2 -- 55.4 4.0
04/22/2019 20:00 224.05 0.02 46.1 -- 55.0 4.0
04/22/2019 19:00 224.04 0.02 46.2 -- 55.0 4.0
04/22/2019 18:00 224.04 0.02 44.8 -- 54.0 4.0
04/22/2019 17:00 224.03 0.00 44.8 -- 56.8 4.0
04/22/2019 16:00 224.03 0.00 45.3 -- 62.5 4.0
04/22/2019 15:00 224.04 0.00 45.0 -- 65.2 3.5
04/22/2019 14:00 224.04 0.00 44.7 -- 66.0 4.0
04/22/2019 13:00 224.04 0.00 45.1 -- 63.2 4.0
04/22/2019 12:00 224.03 0.00 44.8 -- 60.5 4.0
04/22/2019 11:00 224.03 0.00 44.8 -- 56.5 4.0
04/22/2019 10:00 224.02 0.00 44.7 -- 54.2 3.8
04/22/2019 09:00 224.03 0.00 44.8 -- 53.2 4.0
04/22/2019 08:00 224.03 0.00 45.4 -- 51.9 4.0
04/22/2019 07:00 224.03 0.00 45.4 -- 50.6 4.0
04/22/2019 06:00 224.03 0.00 44.6 -- 49.2 3.5
04/22/2019 05:00 224.02 0.00 45.1 -- 49.4 3.8
04/22/2019 04:00 224.02 0.00 44.7 -- 49.6 3.5
04/22/2019 03:00 224.01 0.00 44.8 -- 50.4 3.5
04/22/2019 02:00 224.03 0.00 45.0 -- 51.0 3.5
04/22/2019 01:00 224.02 0.00 44.5 -- 52.2 3.0
04/22/2019 00:00 224.02 0.00 45.1 0.58 53.5 3.3
04/21/2019 23:00 224.02 0.00 44.8 -- 55.4 3.0
04/21/2019 22:00 224.02 0.00 45.5 -- 57.5 3.0
04/21/2019 21:00 224.02 0.00 44.8 -- 59.4 3.0
04/21/2019 20:00 224.01 0.00 44.6 -- 63.1 3.0
04/21/2019 19:00 224.01 0.00 44.6 -- 67.3 3.0
04/21/2019 18:00 224.01 0.00 44.6 -- 65.6 3.0
04/21/2019 17:00 224.01 0.00 44.6 -- 66.6 3.0
04/21/2019 16:00 224.00 0.00 44.6 -- 66.5 3.0
04/21/2019 15:00 224.01 0.00 44.8 -- 65.7 3.0
04/21/2019 14:00 224.01 0.00 44.8 -- 63.9 3.0
04/21/2019 13:00 224.00 0.00 44.6 -- 62.0 3.0
04/21/2019 12:00 224.00 0.01 44.7 -- 62.6 3.0
04/21/2019 11:00 223.99 0.00 44.5 -- 61.3 3.0
04/21/2019 10:00 224.00 0.00 44.5 -- 58.4 3.0
04/21/2019 09:00 223.99 0.00 45.3 -- 57.2 3.0
04/21/2019 08:00 223.98 0.00 45.4 -- 56.9 3.0
04/21/2019 07:00 223.97 0.00 44.6 -- 57.3 3.0
04/21/2019 06:00 224.00 0.00 44.5 -- 57.5 3.0
04/21/2019 05:00 223.97 0.02 44.6 -- 58.0 3.0
04/21/2019 04:00 223.98 0.07 44.6 -- 58.6 3.0
04/21/2019 03:00 223.98 0.02 44.8 -- 60.8 3.0
04/21/2019 02:00 223.97 0.00 44.5 -- 60.5 3.0
04/21/2019 01:00 223.96 0.00 44.7 -- 61.3 3.0
04/21/2019 00:00 223.95 0.00 44.5 0.12 61.6 3.0
04/20/2019 23:00 223.98 0.00 44.7 -- 62.9 3.0
04/20/2019 22:00 223.96 0.02 44.5 -- 63.3 3.0
04/20/2019 21:00 223.98 0.00 44.6 -- 65.6 3.0
04/20/2019 20:00 223.95 0.00 44.6 -- 66.4 3.0
04/20/2019 19:00 223.96 0.00 44.5 -- 67.5 3.0
04/20/2019 18:00 223.96 0.00 44.5 -- 68.1 3.0
04/20/2019 17:00 223.95 0.00 44.6 -- 68.9 3.0
04/20/2019 16:00 223.95 0.00 44.5 -- 67.4 3.0
04/20/2019 15:00 223.94 0.00 44.6 -- 67.3 3.0
04/20/2019 14:00 223.94 0.03 44.6 -- 65.3 3.0
04/20/2019 13:00 223.95 0.28 44.6 -- 64.8 3.0
04/20/2019 12:00 223.91 0.01 44.5 -- 66.4 2.3
04/20/2019 11:00 223.91 0.00 44.5 -- 66.4 2.0
04/20/2019 10:00 223.89 0.00 44.6 -- 66.5 2.0
04/20/2019 09:00 223.91 0.00 44.6 -- 66.5 2.0
04/20/2019 08:00 223.90 0.01 44.6 -- 66.3 2.0
04/20/2019 07:00 223.91 0.00 44.6 -- 65.9 2.0
04/20/2019 06:00 223.89 0.00 44.6 -- 64.5 2.0
04/20/2019 05:00 223.89 0.00 44.5 -- 66.3 2.0
04/20/2019 04:00 223.88 0.00 44.5 -- 65.4 2.0
04/20/2019 03:00 223.89 0.00 44.5 -- 65.0 2.0
04/20/2019 02:00 223.87 0.00 44.5 -- 66.3 2.0
04/20/2019 01:00 223.87 0.00 44.5 -- 67.6 2.0
04/20/2019 00:00 223.88 0.00 44.6 0.35 67.8 2.0
04/19/2019 23:00 223.90 0.00 44.6 -- 67.0 2.0
04/19/2019 22:00 223.88 0.00 44.6 -- 68.3 2.0
04/19/2019 21:00 223.88 0.00 44.7 -- 68.5 2.0
04/19/2019 20:00 223.86 0.00 44.8 -- 71.2 2.0
04/19/2019 19:00 223.87 0.00 44.9 -- 73.4 2.0
04/19/2019 18:00 223.87 0.00 45.1 -- 74.1 2.0
04/19/2019 17:00 223.87 0.00 45.2 -- 75.2 2.0
04/19/2019 16:00 223.89 0.00 45.2 -- 74.4 2.0
04/19/2019 15:00 223.88 0.00 45.0 -- 73.7 2.0
04/19/2019 14:00 223.86 0.00 45.5 -- 73.2 2.0
04/19/2019 13:00 223.87 0.00 45.1 -- 68.5 2.0
04/19/2019 12:00 -- -- -- -- 68.1 2.0
04/19/2019 11:00 -- -- -- -- 53.6 2.0
04/19/2019 10:00 -- -- -- -- 48.8 2.0
04/19/2019 09:00 -- -- -- -- 45.7 2.0
04/19/2019 08:00 -- -- -- -- 42.9 2.0
04/19/2019 07:00 -- -- -- -- 41.5 2.0
04/19/2019 06:00 -- -- -- -- 42.6 2.0
04/19/2019 05:00 -- -- -- -- 42.4 2.0
04/19/2019 04:00 -- -- -- -- 42.2 2.0
04/19/2019 03:00 -- -- -- -- 42.0 2.0
04/19/2019 02:00 -- -- -- -- 41.9 2.0
04/19/2019 01:00 -- -- -- -- 42.1 2.0
04/19/2019 00:00 -- -- -- 0.01 42.0 2.0